GEFSSE_con_prob3kmehi_156.txt.gz
EHI
4 4 4 7 13 21 31 40 49 53 57 58 54 48 42 34 26 20 16 11 7 5 5 4 4 3 3 3 4 4 4 5 5 4 3 3 3 3 3 3 3 3 3
6 5 5 10 18 26 33 39 45 50 55 55 49 43 39 33 27 23 18 12 7 5 5 5 4 3 3 3 4 5 5 5 4 4 3 3 3 3 3 3 4 4 4
10 8 9 16 25 32 37 39 42 45 48 46 42 37 34 30 27 23 19 13 8 6 5 4 3 3 3 3 4 5 6 6 5 4 3 3 3 3 3 4 5 5 4
13 11 13 22 31 36 40 41 41 41 41 39 35 33 30 26 23 20 16 11 8 7 6 4 3 3 3 3 4 5 6 6 6 4 3 3 3 3 3 4 6 6 5
15 14 18 29 36 40 42 41 41 39 38 36 34 31 27 24 21 19 14 9 8 8 6 4 3 4 4 4 4 4 5 5 5 4 3 3 3 3 4 5 6 6 4
17 17 25 38 43 44 44 42 41 38 36 36 36 33 28 24 21 19 15 10 8 6 5 3 4 4 5 4 4 4 4 4 4 3 3 3 3 3 4 5 6 5 4
21 22 31 43 47 46 45 43 41 40 40 40 39 35 29 24 20 18 14 10 6 4 3 3 3 4 4 4 4 4 4 4 3 3 3 3 3 3 3 5 6 4 3
24 26 30 36 40 42 42 42 41 41 42 40 34 27 23 20 17 14 10 7 4 3 3 3 3 3 3 3 3 3 4 4 4 3 2 1 2 3 3 4 5 5 4
21 24 24 22 25 30 35 37 37 36 35 30 22 15 12 13 13 11 8 6 4 3 4 3 3 3 3 3 3 3 3 4 5 4 2 0 1 2 3 4 5 5 4
13 15 15 13 13 16 22 26 27 25 22 18 13 9 8 8 8 8 9 8 6 4 4 4 3 4 4 3 3 4 3 3 3 3 2 1 0 1 3 4 6 6 4
9 10 10 9 8 9 10 13 15 14 11 10 10 9 7 5 4 5 7 9 8 6 5 4 4 4 4 3 4 4 3 2 1 2 2 1 0 1 2 4 6 6 4
9 9 8 7 8 8 7 8 9 8 7 6 8 8 6 2 1 2 4 6 6 5 4 4 4 3 2 2 3 3 2 1 1 1 1 1 0 0 2 5 7 6 4
9 8 6 7 8 8 8 9 9 8 7 6 6 7 5 2 1 1 2 2 2 2 2 2 1 1 2 2 2 2 1 0 0 1 1 1 1 2 5 8 8 6 4
9 7 5 6 8 9 10 11 11 10 9 8 7 7 5 3 1 0 0 1 1 1 0 0 0 0 1 2 2 1 1 0 0 0 1 3 3 4 6 8 7 5 4
7 5 3 4 7 9 9 10 10 9 8 8 7 6 4 3 1 1 0 1 2 2 1 0 0 0 0 1 1 1 1 0 0 0 1 2 3 3 4 6 7 6 4
4 3 1 2 5 6 6 7 8 7 5 4 4 4 3 3 3 2 1 1 3 2 1 0 0 0 0 0 0 1 1 0 0 0 1 1 1 1 2 4 5 6 6
1 1 0 1 2 3 3 4 4 3 2 1 1 2 2 2 3 3 3 3 3 2 1 0 0 0 0 0 0 0 0 0 0 0 0 0 0 1 2 2 3 5 5
1 0 0 0 1 1 1 1 1 1 1 0 0 0 1 1 2 3 3 2 2 2 1 0 0 0 0 0 0 0 0 0 0 0 0 0 0 0 1 2 2 2 2
2 1 1 1 0 0 0 0 0 0 0 0 0 1 1 1 2 2 1 1 1 1 0 0 0 0 0 0 0 0 0 0 0 0 0 0 0 0 0 1 1 1 0
3 3 2 2 1 0 0 0 0 0 0 0 0 1 2 3 2 1 0 0 0 0 0 0 0 0 0 0 0 0 0 0 0 0 0 0 0 0 0 0 0 0 0
5 4 3 2 1 0 0 0 0 0 0 0 0 1 2 2 2 1 0 0 0 0 0 0 0 0 0 0 0 0 0 0 0 0 0 0 0 0 0 0 0 0 0
6 5 3 1 0 0 0 0 0 0 0 0 0 0 1 1 1 0 0 0 0 0 0 0 0 0 0 0 0 0 0 0 0 0 0 0 0 0 0 0 0 0 0
6 5 3 1 1 2 2 1 1 0 0 0 0 0 0 0 0 0 0 0 0 0 0 0 0 0 0 0 0 0 0 0 0 0 0 0 0 0 0 0 0 0 0
5 4 2 1 2 3 3 2 1 0 0 0 0 0 0 0 0 0 0 0 0 0 0 0 0 0 0 0 0 0 0 0 0 0 0 0 0 0 0 0 0 0 0
5 4 2 1 1 3 3 2 1 0 0 0 0 0 0 0 0 0 0 0 0 0 0 0 0 0 0 0 0 0 0 0 0 0 0 0 0 0 0 0 0 0 0
4 3 1 0 1 2 3 1 0 0 0 0 0 0 0 0 0 0 0 0 0 0 0 0 0 0 0 0 0 0 0 0 0 0 0 0 0 0 0 0 0 0 0

GEFSSE_con_prob3kmehi_162.txt.gz
EHI
3 3 2 1 2 8 17 26 36 43 41 33 23 16 12 7 4 1 0 0 0 0 0 0 0 0 0 0 0 0 0 0 0 0 0 0 0 0 0 0 0 1 1
4 4 3 2 3 10 21 30 37 43 43 35 26 18 13 9 4 2 1 0 0 0 0 0 0 0 0 0 0 0 0 0 0 0 0 0 0 0 0 0 0 0 1
4 5 5 4 6 14 25 33 37 40 39 35 26 17 11 8 5 3 1 0 1 1 1 0 0 0 0 0 0 0 0 0 0 0 0 0 0 0 0 0 0 0 0
5 6 8 9 9 14 24 32 36 35 33 29 22 14 8 6 5 4 2 1 2 2 2 1 0 0 0 0 0 0 0 0 0 0 0 0 0 1 0 0 0 0 0
4 5 10 13 12 13 20 27 31 30 27 22 16 11 8 7 6 5 3 3 3 3 2 1 0 0 0 0 0 0 0 0 0 0 0 0 0 0 0 0 0 0 0
2 4 9 14 14 15 17 21 25 27 25 21 15 11 9 7 6 5 4 3 3 2 1 0 0 0 0 0 0 0 0 0 0 0 0 0 0 0 0 0 0 0 0
2 3 8 13 15 16 16 19 24 29 28 25 21 14 10 9 7 5 3 2 2 1 0 0 0 0 0 0 0 0 0 0 0 0 0 0 0 0 0 0 0 0 0
1 3 6 10 13 16 18 21 27 32 31 26 21 17 13 12 9 5 3 1 1 0 0 0 0 0 0 0 0 0 0 0 0 0 0 0 0 0 0 0 0 0 0
2 4 5 7 10 13 18 24 28 30 28 22 17 16 15 13 9 6 3 3 2 1 0 0 0 0 0 0 0 0 0 0 0 0 0 0 1 0 0 0 0 0 0
4 5 5 4 4 7 12 19 22 22 21 18 14 13 11 9 6 4 5 6 5 2 2 1 1 0 0 0 0 0 0 0 0 0 1 2 2 1 0 0 0 0 0
6 6 4 2 1 2 5 10 12 12 13 12 9 7 6 4 3 3 6 9 7 4 3 2 1 0 0 0 0 0 0 0 0 1 2 4 3 1 0 0 0 0 0
10 8 5 3 2 3 5 7 7 7 8 7 6 6 5 4 3 5 8 9 8 5 3 3 2 0 0 0 0 0 0 0 0 2 5 7 4 1 1 0 0 0 0
15 11 6 6 6 7 10 11 8 7 8 9 12 13 10 8 7 8 10 11 10 8 6 5 3 2 1 1 1 1 1 1 1 3 7 9 5 2 2 1 1 0 0
16 13 9 11 12 14 16 17 13 12 14 16 19 19 15 13 11 10 10 11 12 12 12 10 8 6 4 3 2 2 2 2 2 5 9 8 4 3 3 3 2 1 0
13 13 13 15 18 19 21 21 19 19 21 21 22 21 18 16 13 11 11 12 12 14 15 13 12 10 7 4 1 1 3 3 3 5 8 6 4 3 4 5 5 3 1
11 13 15 16 17 18 20 21 22 22 22 21 20 19 17 14 13 12 13 14 13 14 15 14 13 11 9 5 1 1 3 4 4 4 5 4 2 4 6 7 7 6 5
15 16 16 14 13 15 18 21 21 19 17 16 14 13 11 10 11 13 15 16 15 14 15 14 12 11 10 7 4 3 5 5 3 3 5 5 5 5 7 7 6 8 8
18 20 19 15 14 17 19 19 18 15 12 9 8 8 7 8 9 12 14 15 15 14 14 13 10 9 9 9 7 7 8 7 5 4 5 8 8 8 8 6 4 5 6
19 21 21 19 19 19 18 16 14 12 9 7 6 6 6 7 8 10 12 14 14 14 14 12 9 8 8 8 9 9 10 9 7 5 4 6 7 7 6 5 3 3 3
20 20 20 20 20 18 16 13 11 8 6 4 4 4 5 5 6 8 11 12 13 13 14 11 9 8 7 7 8 8 8 8 7 6 5 5 5 4 3 3 3 3 3
20 19 18 17 16 16 15 13 10 7 4 3 2 2 3 3 3 6 9 11 11 11 10 9 8 7 8 8 7 7 6 5 5 5 6 6 5 3 1 1 2 2 2
19 18 16 15 14 14 13 11 8 5 4 2 1 1 1 1 1 3 6 8 8 8 8 7 7 8 8 8 8 7 5 4 3 3 4 5 5 4 2 1 1 1 1
18 17 15 14 13 12 10 8 7 6 5 3 2 1 0 0 0 0 1 3 4 5 5 5 5 6 6 6 7 7 6 4 3 1 1 2 3 3 3 2 2 1 1
16 15 14 12 11 10 9 7 7 8 6 5 4 2 1 0 0 0 0 0 1 2 2 2 2 2 2 3 3 3 4 4 3 1 1 1 1 3 3 3 3 3 3
16 15 13 11 10 9 7 7 7 8 7 6 4 3 1 0 0 0 0 0 0 0 0 0 0 0 0 0 0 0 1 1 1 0 0 0 1 2 3 3 3 3 4
16 15 13 12 10 8 6 5 6 7 7 6 4 2 1 0 0 0 0 0 0 0 0 0 0 0 0 0 0 0 0 0 0 0 0 0 0 1 3 3 3 2 3

GEFSSE_con_prob3kmehi_168.txt.gz
EHI
16 13 15 13 5 1 0 0 0 0 0 0 0 0 0 0 0 0 0 0 0 0 0 0 0 0 0 0 0 0 0 0 0 0 0 1 2 2 1 0 1 0 0
18 16 18 15 7 2 0 0 0 0 0 0 0 0 0 0 0 0 0 0 0 0 0 0 0 0 0 0 0 0 0 0 0 0 0 0 1 1 0 0 1 1 0
17 14 15 15 9 4 2 1 1 1 1 2 1 1 0 0 0 0 0 0 0 0 0 0 0 0 0 0 0 0 0 0 0 0 0 0 0 1 1 1 1 1 1
13 11 12 14 11 7 5 4 2 2 3 3 3 2 1 0 0 0 0 0 0 0 0 0 0 0 0 0 0 0 0 0 0 1 1 1 3 4 2 2 2 1 0
16 15 16 17 15 11 8 5 3 3 3 3 3 3 1 0 0 0 0 0 0 0 0 0 0 0 0 0 0 0 0 0 1 3 3 3 7 8 5 3 3 1 1
21 20 20 22 20 15 10 5 2 1 1 2 3 3 2 1 0 0 0 0 0 0 0 0 0 0 0 0 0 0 0 0 1 2 2 6 12 14 9 5 3 2 2
22 20 21 23 21 17 13 7 3 1 1 1 2 3 3 2 1 0 0 0 0 0 0 0 0 0 0 0 0 0 0 0 1 1 3 9 19 20 14 8 5 3 2
20 20 20 20 19 18 15 11 7 4 3 1 1 2 2 2 1 0 0 0 0 0 0 0 0 0 0 0 0 0 0 0 0 1 3 13 24 24 14 8 5 2 1
20 21 18 15 14 15 14 11 9 8 7 3 1 1 1 1 0 0 0 1 1 0 0 0 0 0 0 0 1 1 1 0 0 0 4 16 28 25 14 8 4 1 0
25 25 21 15 11 9 8 8 8 8 8 5 3 2 2 1 1 1 2 4 4 2 1 0 0 0 0 1 2 2 1 0 1 2 7 21 32 27 17 10 4 1 0
34 31 25 19 12 7 5 7 8 7 7 7 7 7 6 4 3 3 8 12 11 6 3 1 1 2 2 2 3 4 3 2 3 5 15 29 35 28 19 14 8 2 0
39 35 28 25 21 13 10 11 10 9 11 11 12 14 13 10 7 9 16 19 15 9 5 3 4 5 5 4 5 6 5 5 5 7 18 32 36 28 20 16 12 4 1
42 36 31 31 29 24 21 18 13 13 16 18 19 22 21 19 16 17 23 23 16 10 7 6 7 8 7 6 7 8 7 6 6 7 17 30 33 26 19 16 13 6 2
44 41 38 37 35 34 31 25 18 18 22 25 28 29 27 26 24 22 24 24 19 14 11 11 11 10 8 7 8 9 8 6 3 6 17 28 29 23 17 15 12 6 3
47 48 48 45 41 41 40 35 28 27 29 33 36 34 30 28 27 25 25 24 21 17 15 15 14 12 9 8 8 8 6 4 3 8 18 26 25 20 16 13 10 5 3
54 55 53 48 46 47 47 43 37 34 34 36 37 33 29 27 27 26 25 23 20 18 17 15 15 13 10 6 5 4 3 3 6 11 17 22 21 18 15 11 8 5 3
58 57 52 46 47 49 48 45 41 36 36 36 34 29 24 22 22 22 21 18 17 17 16 15 16 15 10 5 3 3 4 5 8 12 14 16 18 16 13 10 8 6 4
59 58 53 47 48 48 45 43 41 39 38 35 31 25 18 15 14 14 13 13 14 14 13 13 16 15 9 5 4 4 5 7 10 10 9 12 15 15 12 10 10 9 7
60 59 54 50 49 46 42 40 40 39 37 32 26 21 16 12 10 9 9 10 11 10 9 9 12 12 9 5 4 4 5 8 10 9 7 9 13 13 10 10 10 9 8
61 59 55 52 50 46 40 37 36 34 32 26 22 17 13 10 8 6 6 6 7 5 4 4 5 6 6 4 2 2 4 6 8 8 7 8 9 9 8 8 9 8 7
59 58 55 52 50 46 41 36 32 30 27 23 18 13 9 6 5 4 4 3 3 2 1 1 1 2 2 3 2 2 2 3 4 5 6 6 6 6 6 7 8 7 5
54 52 50 47 45 42 37 32 28 25 23 18 14 11 6 4 3 4 4 2 1 1 0 0 0 0 1 2 2 1 0 1 1 3 4 5 4 4 4 5 7 7 5
44 41 39 39 38 35 30 26 24 21 17 13 11 8 5 3 3 4 4 1 0 1 1 1 0 0 1 1 1 0 0 0 0 2 4 4 3 3 4 5 6 6 6
34 33 33 33 32 29 25 23 20 17 14 11 9 6 4 3 3 3 2 1 1 2 3 2 2 1 0 0 0 0 0 0 0 1 2 3 2 2 3 3 4 4 5
31 31 31 30 28 24 22 20 18 15 13 12 9 6 4 3 2 1 1 2 3 4 5 5 4 3 1 1 0 0 0 0 0 0 1 1 1 1 1 1 2 2 2
30 30 29 27 24 21 20 19 16 15 14 12 8 6 4 3 1 0 0 2 4 6 6 6 6 5 3 2 1 0 0 0 0 0 0 0 0 0 0 0 0 1 0

GEFSSE_con_prob3kmehi_174.txt.gz
EHI
1 11 28 36 33 28 22 16 11 7 6 6 6 6 7 8 9 9 10 10 8 5 3 3 2 1 0 0 0 0 1 2 3 3 3 3 3 3 4 5 5 4 5
9 17 32 39 36 29 23 17 11 7 6 6 6 6 6 7 7 8 8 7 5 4 3 2 2 1 0 0 0 0 1 2 3 3 3 3 3 3 4 5 4 4 4
24 26 36 44 43 34 24 17 10 5 5 5 5 4 4 5 5 5 4 3 3 2 1 1 1 0 0 0 0 1 2 4 4 3 3 2 2 2 3 4 4 3 3
33 31 37 48 49 38 26 17 8 3 3 3 3 3 3 3 2 2 1 1 1 1 0 0 0 0 0 0 0 2 4 5 4 3 1 1 1 1 2 4 5 3 3
34 32 40 51 52 40 28 18 8 4 3 2 1 1 1 1 1 0 0 0 0 0 0 0 0 0 0 0 0 1 3 4 4 2 1 0 0 2 4 5 5 4 3
33 35 42 51 52 42 30 20 11 7 5 4 2 1 0 0 1 0 0 0 0 0 0 0 0 0 0 0 0 1 2 4 3 1 0 0 1 3 6 8 8 5 3
34 35 40 47 47 39 29 19 14 11 8 6 3 1 0 0 1 1 0 0 0 0 0 0 0 0 0 0 0 0 1 1 1 0 0 0 2 4 7 11 11 5 2
34 32 33 37 37 32 25 18 15 13 11 8 4 2 1 1 1 1 0 0 0 0 0 0 0 0 0 0 0 0 1 1 0 0 0 0 2 5 8 12 11 5 2
31 29 26 25 25 24 21 16 14 14 12 9 6 4 3 2 2 1 0 1 1 0 0 0 0 0 0 0 0 1 3 3 1 0 1 1 3 7 10 11 8 5 4
25 24 22 19 18 18 17 14 13 13 11 8 6 6 5 4 3 2 1 3 3 1 1 1 1 1 0 0 1 3 5 4 2 1 2 3 6 10 13 9 5 5 5
21 20 20 19 17 16 15 13 13 12 10 7 5 5 5 4 3 3 3 5 5 4 2 2 2 2 1 1 1 3 4 4 2 1 3 6 9 14 14 9 5 5 6
22 19 18 18 17 15 13 12 12 11 10 7 4 5 6 5 3 4 5 6 6 5 5 4 3 3 2 1 1 1 2 2 2 1 3 8 12 16 15 9 6 6 7
25 22 18 16 16 13 11 11 12 11 9 6 4 4 6 6 5 4 5 6 6 6 6 6 4 3 3 3 2 1 0 1 1 1 3 8 13 16 16 12 9 9 10
25 23 18 15 15 13 13 14 13 12 10 7 4 5 5 6 6 5 4 4 4 4 6 6 5 4 4 4 3 1 0 0 0 0 2 6 12 14 14 12 9 8 9
26 24 20 18 18 17 17 17 15 13 10 7 5 4 5 5 5 4 3 2 2 3 4 5 4 3 3 3 3 2 1 0 1 1 1 4 8 10 9 7 5 4 5
28 27 26 25 23 21 20 19 17 14 11 8 5 4 4 4 4 4 2 1 1 2 3 2 1 1 1 1 2 2 1 1 1 1 1 2 4 5 5 5 4 3 4
31 32 33 32 29 26 24 23 20 16 13 10 6 5 4 3 3 2 1 0 0 0 1 0 0 0 0 0 1 1 1 0 1 1 1 1 1 2 4 7 8 6 6
35 37 38 36 33 29 27 26 22 18 15 10 7 5 3 2 1 1 0 0 0 0 0 0 0 0 0 0 0 0 0 0 0 0 1 1 0 1 3 6 8 7 7
34 36 38 37 32 27 25 23 20 17 13 8 5 4 3 2 1 0 0 0 0 0 0 0 0 0 0 0 0 0 0 0 0 0 0 0 0 1 2 3 4 4 5
30 32 34 33 29 23 19 17 15 13 10 6 4 4 4 3 3 1 0 0 0 0 0 0 0 0 0 0 0 0 0 0 0 0 0 0 0 0 0 0 1 2 3
30 29 28 27 24 19 14 12 10 9 8 6 4 3 3 3 2 1 0 0 0 0 0 0 0 0 0 0 0 0 0 0 0 0 0 0 0 0 0 0 1 2 3
30 28 24 22 19 15 11 8 7 7 6 5 3 1 1 1 1 0 0 0 0 0 0 0 0 0 0 0 0 0 0 0 0 0 0 0 0 0 0 0 1 2 2
28 25 21 18 15 11 10 8 6 5 4 3 1 0 0 0 0 0 0 0 0 0 0 0 0 0 0 0 0 0 0 0 0 0 0 0 0 0 0 0 0 1 1
25 23 19 16 13 10 9 8 6 4 3 2 1 0 0 0 0 0 0 0 0 0 0 0 0 0 0 0 0 0 0 0 0 0 0 0 0 0 0 0 0 0 0
23 21 18 15 13 11 9 8 5 3 1 1 1 0 0 0 0 0 0 0 0 0 0 0 0 0 0 0 0 0 0 0 0 0 0 0 0 0 0 0 0 0 0
21 18 16 15 14 13 11 7 4 2 0 0 0 0 0 0 0 0 0 0 0 0 0 0 0 0 0 0 0 0 0 0 0 0 0 0 0 0 0 0 0 0 0

GEFSSE_con_prob3kmehi_180.txt.gz
EHI
4 4 8 15 19 23 32 38 36 33 35 39 40 40 38 34 29 22 16 11 8 5 4 3 3 3 3 3 3 2 2 2 2 1 2 2 1 0 0 0 0 0 0
9 8 11 17 21 26 34 39 35 31 31 32 32 32 32 28 23 19 15 10 6 4 3 2 2 2 2 2 2 2 2 2 2 1 1 1 0 0 0 0 0 0 0
18 14 15 20 25 31 38 39 35 29 26 23 20 19 21 19 15 13 11 8 5 3 2 1 1 1 1 1 1 1 1 1 1 1 0 0 0 0 0 0 0 0 0
25 21 19 25 30 34 37 38 34 29 23 18 14 13 13 12 10 7 6 5 5 4 2 1 0 0 0 0 0 1 2 1 0 0 0 0 0 0 0 0 0 1 1
29 25 26 32 35 35 36 34 32 28 21 15 13 12 11 10 8 5 3 3 4 4 3 1 1 1 1 1 1 2 3 2 1 1 1 0 0 0 0 0 0 1 2
30 28 31 39 40 38 36 33 30 27 22 15 12 11 11 10 8 5 2 2 3 4 3 2 2 2 2 2 3 3 3 3 3 3 2 0 0 0 1 0 0 1 2
29 28 33 41 43 40 37 33 30 28 24 17 13 11 11 9 7 4 1 1 1 2 2 2 2 2 2 3 3 3 3 3 4 3 2 0 0 1 2 1 0 0 1
29 28 32 39 43 43 40 35 31 29 25 19 14 10 8 7 4 2 1 0 0 1 1 0 1 1 1 1 2 3 3 3 3 3 1 0 0 0 1 2 1 1 1
27 27 29 33 38 40 39 35 31 28 22 16 11 8 5 4 2 1 1 1 1 1 0 0 0 0 0 0 1 1 2 3 3 3 2 1 1 1 1 2 3 3 2
22 22 23 25 28 29 30 30 28 23 18 12 8 6 4 2 1 0 1 2 3 2 1 0 0 0 0 0 0 1 2 3 2 2 1 1 3 3 3 2 3 3 3
16 16 18 20 21 22 23 24 22 18 14 11 8 5 3 2 0 0 0 1 1 1 0 0 0 0 0 0 0 0 2 4 3 1 0 2 5 6 4 3 3 2 2
13 12 13 15 19 20 21 19 17 14 12 11 9 6 4 2 1 0 0 0 0 0 0 1 1 1 1 1 1 1 2 3 3 1 0 2 5 6 5 4 3 2 2
11 11 11 12 15 18 19 17 14 13 12 12 10 8 5 3 1 0 0 0 0 0 1 2 2 2 3 4 4 3 2 2 2 1 1 1 3 4 5 5 5 4 3
12 12 13 15 14 14 15 15 14 13 13 12 11 9 7 5 1 0 0 0 0 0 1 2 2 2 3 4 4 3 2 2 3 2 1 1 2 3 5 6 7 6 5
12 12 15 17 17 14 14 14 14 13 12 11 9 8 6 4 1 0 0 0 0 0 0 1 1 1 1 1 1 1 1 2 2 2 2 1 1 2 5 6 7 6 5
11 11 14 17 17 16 14 13 12 11 9 7 5 4 3 2 1 0 0 0 0 0 0 0 0 0 0 0 0 0 0 1 1 1 1 0 0 1 3 5 5 5 4
10 11 13 15 16 16 14 11 9 8 6 3 2 1 1 1 1 0 0 0 0 0 0 0 0 0 0 0 0 0 0 0 0 0 0 0 0 0 2 3 4 5 4
9 11 14 15 15 13 11 8 6 5 4 2 1 0 1 1 1 0 0 0 0 0 0 0 0 0 0 0 0 0 0 0 0 0 0 0 0 0 1 2 4 4 4
9 11 13 14 12 10 8 6 4 4 4 2 1 0 0 1 1 0 0 0 0 0 0 0 0 0 0 0 0 0 0 0 0 0 0 0 0 0 1 1 2 3 4
9 9 11 11 11 8 5 4 4 4 3 2 1 0 0 0 0 0 0 0 0 0 0 0 0 0 0 0 0 0 0 0 0 0 0 0 0 0 0 0 1 2 3
9 9 10 11 11 7 5 4 4 3 2 2 1 0 0 0 0 0 0 0 0 0 0 0 0 0 0 0 0 0 0 0 0 0 0 0 0 0 0 0 0 1 2
12 11 10 11 11 8 6 5 5 3 1 0 0 0 0 0 0 1 1 0 0 0 0 0 0 0 0 0 0 0 0 0 0 0 0 0 0 0 0 0 0 0 1
15 13 11 10 10 9 8 6 5 2 0 0 0 0 0 0 0 0 1 1 0 0 0 0 0 0 0 0 0 0 0 0 0 0 0 0 0 0 0 0 0 0 0
14 13 11 10 9 9 8 5 3 2 0 0 0 0 0 0 0 0 0 0 0 0 0 0 0 0 0 0 0 0 0 0 0 0 0 0 0 0 0 0 0 0 0
14 12 10 10 9 8 7 5 3 1 0 0 0 0 0 0 0 0 0 0 0 0 0 0 0 0 0 0 0 0 0 0 0 0 0 0 0 0 0 0 0 0 0
14 11 10 10 9 8 7 5 2 1 0 0 0 0 0 0 0 0 0 0 0 0 0 0 0 0 0 0 0 0 0 0 0 0 0 0 0 0 0 0 0 0 0

GEFSSE_con_prob3kmehi_186.txt.gz
EHI
18 28 32 26 18 13 12 16 25 34 38 37 37 35 30 24 19 14 11 8 4 2 1 0 0 0 0 0 0 0 0 0 0 0 0 0 0 0 0 0 0 4 11
22 29 33 27 20 16 16 20 26 33 38 40 41 38 32 25 19 14 10 7 4 2 1 0 0 0 0 0 0 0 0 0 0 0 0 0 0 0 0 0 0 3 6
28 30 32 29 22 18 20 25 30 32 36 40 41 38 31 23 16 12 9 6 4 3 1 0 0 0 0 0 0 0 0 0 0 0 0 0 1 1 1 0 0 1 2
30 29 29 29 25 20 22 29 32 31 31 34 35 32 26 19 13 10 8 5 4 2 1 0 0 0 0 0 0 0 0 0 0 0 0 0 2 3 2 0 0 0 0
28 27 27 29 26 22 23 28 30 29 29 29 28 25 21 16 12 9 8 5 3 2 1 0 0 0 0 0 0 0 0 0 0 0 0 0 2 4 3 0 0 1 1
23 24 26 29 27 25 24 26 28 28 28 27 24 21 19 15 10 7 5 4 2 1 0 0 0 0 0 0 0 0 1 1 0 0 0 0 2 4 2 0 1 2 2
19 21 25 28 27 25 25 26 28 28 27 26 24 21 17 13 8 4 2 1 0 0 0 0 0 0 0 0 0 0 1 1 0 0 0 0 4 5 3 0 1 2 2
18 20 24 25 24 23 23 27 29 28 26 25 24 21 18 15 10 5 1 0 0 0 0 0 0 0 0 0 0 0 0 0 0 0 0 2 6 7 3 0 0 1 1
16 19 22 21 19 17 18 23 27 27 25 23 22 21 19 16 13 7 2 0 0 0 0 0 0 0 0 0 0 0 0 0 0 0 0 3 8 7 3 0 0 0 0
15 18 21 19 16 13 13 17 22 24 23 20 18 18 16 13 10 7 3 2 1 0 1 1 1 0 0 0 0 0 0 0 0 0 1 5 9 7 3 1 1 1 1
16 19 23 22 18 13 12 16 19 21 21 17 15 14 12 8 7 6 6 5 3 2 2 2 1 0 0 0 0 1 1 0 0 1 2 6 9 7 3 1 2 2 2
20 22 25 26 22 17 17 20 21 21 19 15 12 13 11 8 7 7 8 8 6 3 3 2 1 1 0 1 2 3 3 2 2 2 4 7 8 6 2 1 2 4 5
25 25 26 28 27 25 24 24 23 22 20 15 13 15 13 11 10 9 11 12 9 7 5 4 3 2 2 3 3 3 2 2 3 4 6 9 9 5 1 0 3 6 7
28 28 28 30 32 32 31 27 24 23 21 19 20 20 17 15 14 13 14 14 12 9 8 6 5 4 5 5 4 2 1 2 3 5 7 9 8 4 1 0 2 5 6
27 27 29 31 33 35 35 32 26 23 22 24 26 24 21 18 17 17 18 16 12 10 8 7 6 5 6 6 4 2 1 1 1 2 4 5 5 3 1 0 1 2 4
25 26 28 30 33 36 37 34 28 26 26 26 26 25 22 19 18 18 18 15 12 9 8 8 7 7 6 5 3 2 2 1 0 0 1 2 2 1 0 0 0 1 2
27 28 28 29 33 37 38 35 29 27 27 26 24 23 21 18 18 17 14 12 10 8 8 9 9 8 6 3 1 1 1 0 0 0 0 0 0 0 0 0 0 0 1
27 29 30 30 34 38 38 34 28 25 24 23 22 21 19 17 15 14 12 10 8 6 6 7 7 7 5 2 0 0 0 0 0 0 0 0 0 1 1 0 0 0 0
24 26 29 30 32 36 36 31 27 25 23 20 18 18 17 16 13 11 11 9 6 4 4 5 4 4 3 1 0 0 0 0 0 0 0 0 0 1 1 0 0 0 0
23 24 28 31 32 34 32 28 26 25 22 18 16 17 16 14 12 10 10 9 6 4 4 4 4 4 3 2 1 1 0 0 0 0 0 0 0 1 1 0 0 0 0
25 24 28 32 34 34 32 29 27 25 20 17 16 16 15 13 11 9 8 8 6 4 3 4 4 4 3 3 2 1 0 0 0 0 0 0 0 0 0 0 0 1 1
27 25 26 31 33 33 32 32 29 24 19 16 15 15 13 10 8 6 5 6 5 3 3 3 3 3 3 3 2 1 0 0 0 0 0 0 0 0 0 0 0 1 1
25 24 25 29 31 31 31 30 26 21 17 15 15 14 11 8 6 4 3 3 2 2 3 2 1 1 2 1 1 0 0 0 0 0 0 0 0 0 0 0 0 0 1
20 22 25 29 31 31 28 25 23 20 17 16 14 13 11 9 6 4 2 1 0 1 2 1 1 1 1 0 0 0 0 0 1 0 0 0 0 0 0 0 0 0 0
16 19 23 26 29 29 28 26 25 22 18 15 13 13 12 10 6 3 2 1 0 0 0 0 0 0 0 0 0 0 0 0 0 0 0 0 0 0 0 0 0 0 0
15 19 21 22 24 28 30 29 27 24 18 14 13 13 13 9 5 3 2 2 1 0 0 0 0 0 0 0 0 0 0 0 0 0 0 0 0 0 0 0 0 0 0

GEFSSE_con_prob3kmehi_192.txt.gz
EHI
38 39 45 47 38 27 14 5 3 4 4 3 4 4 3 2 2 2 1 1 1 0 0 0 0 0 0 0 0 0 0 1 2 1 0 1 3 3 3 5 6 10 15
44 42 48 50 41 30 17 7 4 4 4 3 3 4 3 2 2 1 1 2 1 0 0 0 0 0 0 0 0 0 0 1 1 1 0 0 1 1 2 3 6 10 13
48 43 46 50 44 32 21 11 6 4 3 3 3 3 4 3 2 2 3 3 2 0 0 0 0 0 0 0 0 0 0 0 0 0 0 0 3 5 3 2 4 7 8
43 39 41 47 43 33 23 15 9 5 3 3 4 4 5 5 4 3 3 3 2 1 0 0 0 0 0 0 0 0 0 0 0 0 0 1 9 15 10 3 3 3 4
35 34 39 44 42 33 24 18 13 7 3 2 4 5 7 7 6 5 4 2 2 2 1 0 1 1 0 0 0 0 0 0 0 0 0 3 16 25 19 9 4 2 2
30 32 38 42 40 34 26 20 16 11 7 4 5 8 10 12 11 7 4 3 4 4 1 0 1 1 0 0 0 0 0 0 0 0 0 6 20 30 24 13 7 3 2
32 34 39 43 41 34 27 22 20 18 14 11 10 12 14 16 13 8 5 4 5 4 2 0 1 1 0 0 0 0 0 0 0 0 1 8 24 34 27 15 9 6 5
39 40 42 43 41 35 29 25 23 22 20 18 16 16 17 16 13 9 5 4 4 4 2 1 0 0 0 1 1 1 1 1 0 0 3 12 30 41 33 20 13 11 9
45 44 42 40 37 33 30 27 25 24 23 23 20 18 16 14 12 9 7 5 4 3 3 2 1 1 1 2 2 2 2 2 1 1 4 16 37 47 41 28 19 15 13
46 44 42 38 35 31 28 27 27 26 25 24 21 17 14 12 10 9 9 9 8 6 5 3 3 2 3 3 3 4 4 3 1 1 5 18 36 43 39 31 23 16 13
45 43 42 40 35 29 27 28 27 26 25 22 18 15 11 8 8 9 12 16 17 13 10 8 6 5 4 4 5 7 8 5 1 1 7 21 33 33 28 25 20 14 12
43 42 40 40 37 32 32 33 29 25 24 19 15 14 11 8 8 10 17 25 26 21 17 14 12 8 6 6 8 10 9 5 1 2 11 25 31 27 21 19 16 13 11
40 39 38 40 41 40 41 40 34 30 27 22 18 19 17 14 14 16 23 29 29 24 21 19 16 12 9 9 9 8 6 4 2 3 12 25 28 23 17 15 14 13 12
39 38 38 43 48 50 51 48 41 39 38 34 31 29 26 23 22 22 26 29 27 24 21 20 17 12 9 8 6 3 2 2 2 4 12 22 24 19 14 12 14 14 14
42 41 41 46 54 59 60 56 50 48 49 50 47 39 32 29 27 27 28 28 25 22 21 20 18 12 8 6 3 2 2 2 3 5 12 20 22 18 14 11 11 12 13
50 48 47 51 59 63 64 63 58 54 53 54 51 43 35 32 31 30 30 27 24 22 21 21 18 13 8 5 4 4 4 4 5 7 10 14 17 16 14 11 9 8 7
58 57 54 54 60 64 63 60 57 54 51 49 47 44 38 34 32 31 30 27 24 23 22 21 19 15 10 7 7 8 7 7 8 8 7 8 10 11 10 9 7 5 3
63 63 59 56 60 63 60 56 52 51 50 46 44 41 37 33 31 30 28 26 24 23 21 18 17 15 12 9 8 8 8 9 9 7 5 4 4 6 6 5 5 3 1
62 63 61 60 62 62 59 54 51 50 49 45 41 37 33 30 28 28 27 24 22 22 20 16 14 14 12 9 6 5 6 8 8 5 2 2 2 4 3 2 2 1 0
60 60 62 64 64 62 59 55 50 48 45 40 36 34 31 28 26 26 25 23 20 20 20 16 11 11 10 8 5 3 4 6 6 2 1 1 1 1 1 0 0 1 1
59 58 59 61 62 61 59 56 50 45 39 34 32 32 32 30 26 22 22 22 21 21 19 14 9 7 7 7 5 3 3 4 2 1 1 1 0 0 1 1 1 1 1
57 57 56 56 57 58 57 54 48 41 35 32 31 31 33 32 27 21 20 21 21 20 16 11 7 5 4 5 4 3 2 1 0 0 0 0 0 1 2 2 2 2 1
52 53 54 54 54 56 55 50 43 37 33 31 31 32 32 30 25 21 20 19 19 17 13 9 7 5 2 2 2 2 1 0 0 0 0 0 0 1 2 1 1 3 3
45 47 51 53 53 54 51 45 40 34 31 29 30 30 28 23 21 20 20 20 18 14 11 8 6 4 2 1 1 1 0 0 0 0 0 0 0 1 1 0 1 2 4
37 40 44 48 50 49 45 41 37 33 30 28 27 26 23 19 17 18 19 19 16 14 10 8 6 5 4 2 1 0 0 0 0 0 0 0 0 0 0 0 0 1 2
32 35 39 43 47 46 42 39 36 33 29 27 25 23 20 18 17 16 17 17 15 13 10 8 8 8 7 4 2 1 0 0 0 0 0 0 0 0 0 0 0 0 1

GEFSSE_con_prob3kmehi_198.txt.gz
EHI
8 25 54 71 72 67 57 45 36 25 16 10 8 7 7 8 8 9 10 9 7 4 3 3 2 1 0 0 0 0 0 0 0 1 2 3 4 6 8 10 12 14 18
11 27 53 69 71 66 57 47 37 28 19 13 9 6 6 5 5 6 6 5 4 2 1 1 1 0 0 0 0 0 0 0 1 2 2 2 3 5 7 9 11 12 14
17 28 47 63 66 62 55 46 39 31 22 16 11 6 3 2 2 2 2 1 1 0 0 0 0 0 0 0 0 0 0 0 1 2 2 1 2 3 5 7 8 9 10
21 27 41 55 59 54 48 43 38 32 25 18 13 7 3 1 1 1 0 0 0 0 0 0 0 0 0 0 0 0 0 0 0 1 1 0 1 2 5 7 8 7 7
22 26 39 54 58 51 44 40 36 31 25 17 11 8 5 3 1 1 1 0 0 0 0 0 0 0 0 0 0 0 0 0 0 0 0 0 0 2 5 9 9 6 4
24 29 43 57 60 53 45 41 37 32 26 17 10 7 5 4 3 2 2 1 1 0 0 0 0 0 0 0 0 0 0 0 0 0 0 1 1 3 5 9 9 6 4
30 34 46 57 58 53 48 44 40 36 30 21 11 6 5 4 3 3 3 3 2 1 0 0 0 0 0 0 0 0 0 0 0 0 0 1 3 4 6 8 9 7 4
37 39 45 50 51 50 48 46 44 40 35 25 14 8 6 4 3 4 4 4 3 2 1 0 0 0 0 0 0 0 0 0 0 0 0 1 2 4 6 10 12 10 7
40 41 42 42 42 44 45 46 45 42 37 28 17 10 8 6 5 5 5 4 3 3 1 0 0 0 0 0 0 0 0 0 0 0 1 1 1 3 8 14 16 15 13
36 38 39 38 36 36 38 41 43 41 36 28 19 12 10 8 6 6 6 6 5 4 3 1 0 0 0 0 0 0 0 0 0 0 1 2 2 3 8 15 18 17 15
27 29 32 33 33 31 32 34 37 36 32 24 17 12 10 9 8 7 7 8 8 8 6 3 1 0 0 0 0 0 0 0 0 0 1 2 3 4 7 14 17 16 14
23 23 24 28 30 31 30 30 31 30 26 20 15 11 10 9 8 7 7 8 9 9 8 6 3 1 1 1 2 2 1 1 0 0 0 3 5 7 8 13 16 15 12
25 23 23 25 27 29 30 29 28 27 22 17 14 11 9 7 7 7 6 6 7 8 8 6 4 4 4 4 5 5 3 2 1 0 1 5 9 10 10 12 14 14 12
28 25 24 25 25 27 29 28 27 25 21 17 15 12 9 8 7 7 6 6 6 6 6 6 6 6 6 6 5 5 3 2 1 0 2 6 10 10 10 11 12 12 11
31 27 24 24 23 24 26 28 27 24 20 17 16 13 11 10 9 7 6 6 6 6 6 6 6 5 5 5 4 3 3 2 1 0 1 4 8 9 10 10 11 11 10
35 31 27 26 25 25 25 27 26 23 19 17 15 14 12 10 9 7 6 6 6 6 6 5 5 4 4 4 4 3 3 2 1 0 1 3 5 8 10 11 10 9 9
37 34 33 32 29 27 26 25 24 22 19 16 15 13 11 10 8 7 6 6 6 6 5 5 4 3 3 3 3 3 3 3 2 1 0 1 3 5 8 9 8 6 6
37 38 38 36 32 27 25 23 21 20 18 15 12 11 11 9 7 5 5 6 6 5 4 4 3 3 3 2 2 2 2 2 2 1 0 0 1 2 4 6 6 5 4
39 41 41 36 31 27 24 21 18 17 16 14 10 9 10 9 6 4 4 4 4 4 4 4 3 3 2 1 1 1 1 0 1 1 0 0 0 1 1 4 5 4 3
40 41 40 36 32 29 25 21 17 16 16 14 11 9 9 8 5 4 3 3 3 3 5 5 4 3 1 0 0 0 0 0 0 0 0 0 0 0 0 1 2 2 2
38 38 37 34 32 30 27 21 17 16 16 15 13 10 8 6 5 4 3 2 2 2 3 4 3 2 1 0 0 0 0 0 0 0 0 0 0 0 0 0 0 0 1
37 37 36 34 32 30 27 22 17 15 15 15 13 10 7 6 5 3 2 1 0 1 1 1 1 1 0 0 0 0 0 0 0 0 0 0 0 0 1 0 0 0 0
37 36 34 33 33 32 29 23 17 14 13 12 11 9 7 6 4 3 1 0 0 0 0 0 0 0 0 0 0 0 0 0 0 0 0 0 0 0 0 0 0 0 0
34 33 32 32 33 32 29 23 17 13 11 10 10 8 7 6 4 3 1 0 0 0 0 0 0 0 0 0 0 0 0 0 0 0 0 0 0 0 0 0 0 0 0
25 26 28 29 29 29 27 21 16 13 11 9 8 8 7 6 4 3 2 1 0 0 0 0 0 0 0 0 0 0 0 0 0 0 0 0 0 0 0 0 0 0 0
18 20 24 26 26 26 24 19 14 13 11 9 8 7 7 6 4 3 2 1 0 0 0 0 0 0 0 0 0 0 0 0 0 0 0 0 0 0 0 0 0 0 0

GEFSSE_con_prob3kmehi_204.txt.gz
EHI
12 25 39 39 39 49 57 58 58 60 60 58 56 54 50 42 34 25 17 11 6 4 2 1 0 0 0 0 0 0 0 0 0 0 0 0 0 0 0 1 1 1 0
15 27 41 43 42 51 58 60 58 58 58 56 55 53 47 39 30 22 16 10 6 3 3 1 0 0 0 0 0 0 0 0 0 0 0 0 0 0 0 0 0 0 0
20 29 40 46 49 55 62 62 58 55 54 53 52 48 42 34 25 18 13 8 5 3 3 2 1 0 0 0 0 0 0 0 0 0 0 0 0 0 0 0 0 0 0
23 30 38 47 55 60 62 62 58 54 52 50 47 43 38 31 23 16 10 7 6 4 4 3 2 1 0 0 0 0 0 0 0 0 0 0 0 0 0 0 0 0 0
23 30 38 48 56 58 57 57 56 54 53 50 45 40 35 27 19 13 9 6 6 6 5 4 3 1 1 0 0 0 0 0 0 0 0 0 0 0 0 0 0 0 0
23 28 37 47 54 54 53 54 55 55 53 48 41 36 32 25 17 11 8 7 6 6 6 5 4 3 2 0 0 0 0 0 0 0 0 0 1 1 0 0 0 0 1
22 26 35 45 50 50 51 52 52 52 49 43 36 32 28 22 15 10 8 6 6 6 6 6 6 4 2 0 0 0 0 0 0 0 0 0 1 1 0 1 2 2 2
23 26 31 38 44 48 49 48 47 46 44 39 34 29 24 19 13 9 7 5 4 4 4 5 6 4 2 1 0 0 0 0 0 0 0 0 1 1 0 1 3 4 4
23 24 27 30 36 42 44 45 45 43 40 38 33 27 21 17 12 8 6 5 3 3 3 4 4 4 3 2 2 1 1 0 0 0 0 0 0 0 0 1 3 5 5
20 22 23 25 29 33 36 40 42 41 40 38 33 28 22 17 13 9 7 5 3 2 2 3 3 3 3 4 5 4 2 2 1 0 0 1 1 1 0 1 3 5 5
17 18 21 23 25 27 30 33 36 37 38 36 33 29 24 18 14 11 9 7 4 1 1 3 3 3 4 6 7 6 4 4 2 1 1 2 2 1 0 2 4 5 5
15 15 17 20 23 26 28 28 29 30 31 30 28 25 21 16 12 11 9 7 4 1 1 3 3 3 4 6 7 6 5 4 4 3 2 1 1 0 1 4 7 7 7
13 13 14 17 21 24 26 25 25 25 25 24 21 19 15 11 9 8 7 5 2 2 2 2 3 3 4 4 5 5 4 4 4 4 3 1 0 0 1 5 8 8 8
12 13 14 16 19 22 23 22 21 21 21 19 16 14 12 9 6 4 4 3 2 1 1 1 1 2 3 2 2 3 3 3 4 5 5 3 1 0 1 3 5 5 6
13 14 14 15 18 20 20 19 17 16 15 15 14 12 11 10 6 3 3 3 2 1 1 1 1 2 2 1 1 1 1 1 3 5 6 4 3 1 0 1 2 3 4
14 15 15 14 16 18 17 15 13 12 12 13 12 11 11 10 7 3 2 2 2 2 2 2 3 2 1 1 0 0 0 1 3 5 5 4 3 2 1 1 2 3 3
15 16 16 14 15 15 13 12 11 10 11 12 11 10 10 9 6 3 1 1 1 1 2 2 2 2 2 1 0 0 1 2 3 4 4 3 1 1 2 3 3 3 3
17 18 16 15 14 13 11 10 10 10 10 11 11 10 9 7 5 3 1 0 0 0 1 1 1 1 1 1 0 0 1 1 1 2 2 2 1 1 2 2 3 3 4
16 17 17 15 14 12 10 9 9 10 9 10 10 10 9 7 5 4 3 1 0 0 0 0 0 0 0 0 0 0 0 0 0 0 1 1 1 0 1 1 1 2 3
14 15 16 16 15 13 11 10 10 11 10 9 9 9 8 7 5 4 3 1 0 0 0 0 0 0 0 0 0 0 0 0 0 0 0 0 0 0 0 0 0 1 1
12 14 16 16 15 14 13 12 11 11 11 9 8 8 7 5 4 2 2 1 0 0 0 0 0 0 0 0 0 0 0 0 0 0 0 0 0 0 0 0 0 0 0
12 13 14 14 14 14 14 12 11 11 10 10 8 7 6 5 4 2 1 0 0 0 0 0 0 0 0 0 0 0 0 0 0 0 0 0 0 0 0 0 0 0 0
12 11 12 12 12 12 12 12 11 11 10 10 9 8 6 6 4 3 1 0 0 0 0 0 0 0 0 0 0 0 0 0 0 0 0 0 0 0 0 0 0 0 0
10 10 10 9 9 9 9 10 11 11 10 9 9 8 6 5 4 3 2 1 0 0 0 0 0 0 0 0 0 0 0 0 0 0 0 0 0 0 0 0 0 0 0
10 10 11 10 8 6 6 7 8 8 8 7 7 6 5 3 3 3 2 1 0 0 0 0 0 0 0 0 0 0 0 0 0 0 0 0 0 0 0 0 0 0 0
9 11 12 11 8 4 4 5 5 5 6 6 5 4 4 2 2 3 2 1 0 0 0 0 0 0 0 0 0 0 0 0 0 0 0 0 0 0 0 0 0 0 0

GEFSSE_con_prob3kmehi_210.txt.gz
EHI
22 35 44 39 30 29 35 43 50 56 58 55 52 51 46 39 32 28 24 19 14 11 7 6 3 3 3 3 2 2 2 2 2 2 2 2 2 2 2 2 2 5 8
30 38 43 39 33 33 38 45 52 56 58 58 55 51 47 39 32 27 21 16 12 9 6 4 2 1 1 1 1 1 1 1 1 1 1 1 1 1 1 1 4 7 10
38 41 41 40 38 38 43 49 54 56 58 58 55 51 47 40 32 25 17 11 8 5 3 2 1 0 0 0 0 0 0 0 0 0 0 0 0 0 0 0 3 7 9
41 42 42 41 41 42 45 50 54 56 56 55 52 47 42 37 30 23 14 7 4 3 1 1 0 0 0 0 0 0 0 0 0 0 0 0 1 2 1 0 1 3 4
38 41 44 43 43 43 44 48 50 51 51 49 46 41 36 31 27 22 13 7 4 3 1 1 1 0 0 0 0 0 0 0 0 0 0 0 2 4 3 1 0 1 1
32 38 42 43 43 42 42 43 43 43 42 41 39 36 32 27 24 21 14 7 4 3 2 2 1 1 0 0 1 1 0 0 0 0 0 0 3 6 5 2 1 1 1
28 33 39 40 40 40 41 41 40 39 37 36 35 34 30 26 23 21 16 8 4 3 3 2 2 2 1 0 1 1 0 0 0 0 0 0 4 8 7 3 1 1 2
26 31 34 34 34 37 40 41 41 40 38 36 35 33 29 25 23 21 15 9 4 3 3 3 3 3 1 0 0 0 0 0 0 0 0 1 5 8 7 3 0 1 3
24 27 28 26 26 30 35 39 41 41 39 39 37 34 30 26 24 20 13 8 5 5 5 5 5 4 2 1 1 0 0 0 0 0 0 3 7 8 6 3 1 1 3
21 21 21 21 22 22 25 31 36 38 39 39 37 33 27 22 18 16 12 9 7 6 6 6 6 5 3 2 1 0 1 1 1 1 1 3 7 7 6 5 3 2 3
21 18 18 21 21 17 17 21 25 29 32 32 30 27 21 14 11 11 12 12 9 6 5 5 4 3 3 3 2 1 2 2 2 2 2 4 6 7 6 6 5 5 6
24 21 20 22 21 16 14 15 15 19 23 23 21 21 18 14 11 11 13 14 10 5 4 4 3 2 2 3 3 2 3 3 4 4 4 5 6 6 6 6 7 8 8
23 22 21 21 21 18 16 15 13 15 19 19 19 21 21 20 18 16 16 14 10 7 5 4 3 2 2 2 3 3 3 4 5 5 5 6 6 6 6 6 7 8 9
18 19 19 20 22 22 20 19 18 19 21 20 22 23 23 24 23 20 18 14 11 8 7 7 4 2 1 1 2 2 2 3 4 5 4 4 5 6 6 6 6 6 7
17 18 19 22 25 26 25 23 22 22 22 21 23 23 22 23 23 21 19 16 11 9 8 6 4 2 0 0 1 1 1 1 2 3 3 3 4 5 6 5 4 4 6
19 20 22 25 27 28 26 23 21 20 20 21 23 23 20 20 20 20 19 16 11 9 8 6 4 2 0 0 0 0 0 1 1 2 3 3 3 4 5 5 4 4 5
19 19 21 24 27 28 27 24 21 19 19 21 23 23 20 18 19 18 16 14 11 11 11 9 5 2 0 0 0 0 1 1 1 1 2 3 3 4 5 5 4 5 6
20 19 18 20 25 27 28 27 23 20 19 19 21 20 19 19 19 18 17 15 13 13 13 12 8 4 1 0 0 0 1 1 1 0 1 1 3 4 5 6 5 5 6
20 18 17 18 22 26 29 28 24 21 19 19 19 19 20 19 18 17 18 17 15 15 15 12 9 6 3 1 0 0 0 0 0 0 0 1 2 3 4 5 4 5 6
18 18 18 19 24 29 31 30 27 23 21 19 19 19 19 18 16 15 16 16 16 16 15 13 11 8 5 2 1 0 0 0 0 0 1 1 1 1 2 3 4 6 6
16 18 21 23 28 32 33 33 31 28 23 19 17 16 15 15 14 14 15 15 16 16 15 13 12 9 6 4 3 2 0 0 0 0 0 0 0 0 0 1 4 5 5
13 16 21 27 30 32 32 31 31 29 23 18 15 13 12 13 14 15 15 14 15 16 16 15 13 9 7 6 6 4 1 0 1 0 0 0 1 1 1 1 2 2 2
12 14 19 25 29 30 30 29 28 26 22 18 15 14 13 15 16 16 15 13 14 16 16 16 15 12 10 8 7 5 2 1 1 0 0 0 1 2 2 1 1 1 1
11 14 17 21 24 26 27 28 27 24 21 18 18 16 16 16 15 13 13 13 14 15 15 16 16 15 12 10 8 5 3 2 1 0 0 0 0 1 1 1 2 3 2
9 11 15 19 20 22 22 25 27 25 22 20 19 19 17 15 13 11 10 11 12 14 15 17 17 15 12 10 8 6 3 2 1 0 0 0 0 0 0 1 3 4 5
8 10 14 19 21 20 19 21 25 26 25 22 20 19 18 15 13 11 9 8 9 11 15 18 18 15 11 9 8 6 4 2 1 0 0 0 0 0 0 1 2 4 6

GEFSSE_con_prob3kmehi_216.txt.gz
EHI
44 44 48 48 38 28 19 11 7 5 4 3 4 4 3 4 5 6 6 6 5 5 5 4 3 3 3 2 1 1 1 3 3 1 0 0 0 0 0 2 4 4 6
46 45 49 48 39 29 21 14 10 8 5 4 4 4 3 3 4 5 5 4 4 4 4 3 3 3 3 3 2 2 2 3 2 1 0 0 0 0 1 3 5 6 7
45 43 44 46 40 31 23 18 15 12 9 8 8 6 4 3 3 4 4 3 3 3 3 3 3 3 3 3 3 3 3 3 1 1 0 0 1 4 5 5 6 7 9
40 38 39 42 39 32 26 22 20 17 13 13 13 9 6 4 4 4 4 4 3 3 3 3 3 3 3 3 3 3 3 2 1 0 0 1 5 11 11 8 7 8 9
39 38 39 41 39 34 29 25 24 22 20 19 16 12 9 7 7 7 7 5 4 3 3 3 3 3 3 3 3 3 2 2 2 1 0 3 10 16 15 11 10 9 9
40 39 39 41 41 37 34 31 29 28 26 24 20 15 12 11 12 10 8 7 5 4 4 3 3 3 3 3 3 3 1 1 1 1 1 5 11 18 19 14 12 11 10
40 38 37 39 38 37 37 38 36 32 30 28 25 21 17 18 18 14 10 7 6 6 5 4 4 4 3 3 3 3 2 1 0 1 2 6 14 23 22 16 13 12 10
39 36 33 34 34 35 37 38 37 34 32 30 28 26 23 23 22 18 13 9 7 7 6 5 5 4 4 3 3 3 3 1 1 1 3 9 20 27 23 14 12 11 10
42 37 31 29 30 31 32 31 32 33 32 29 26 26 26 24 23 20 17 13 10 7 6 4 4 4 3 3 3 3 3 2 1 1 3 13 26 30 23 14 11 10 9
45 39 31 27 26 25 24 24 26 28 29 25 22 22 23 21 20 18 17 16 13 9 6 4 3 3 2 2 2 2 2 2 1 1 4 15 27 29 22 15 11 9 8
46 41 33 27 23 20 18 19 21 22 21 19 17 18 17 14 12 12 13 16 15 11 6 4 3 3 1 1 2 3 2 1 0 0 4 14 23 23 19 15 11 9 8
42 38 31 26 22 18 19 20 19 16 15 14 14 15 13 8 5 7 12 16 16 11 6 4 4 3 2 2 3 4 3 1 0 1 6 14 18 17 14 12 10 8 7
32 27 24 23 21 19 22 22 19 16 15 14 13 14 13 9 5 7 14 17 15 10 7 6 5 3 3 3 4 4 3 2 0 1 7 15 17 14 12 10 8 7 7
26 22 21 25 26 25 26 24 20 18 18 17 16 16 16 13 9 11 15 17 15 11 8 7 6 5 4 4 4 4 3 2 1 1 7 14 15 13 11 9 7 7 7
31 28 28 32 34 35 34 28 23 24 24 23 23 22 20 18 17 17 20 20 16 12 9 7 7 8 6 4 4 4 4 4 2 1 5 10 12 11 10 9 7 7 7
38 39 38 39 40 40 37 31 26 29 30 28 30 30 25 23 24 25 25 23 17 12 10 9 10 11 10 6 4 3 4 5 4 3 4 7 9 10 10 9 7 7 7
42 43 43 43 44 42 38 32 29 30 32 32 35 35 29 26 27 27 27 23 17 12 14 15 15 16 13 7 4 3 5 6 6 5 5 5 7 8 8 8 6 7 8
43 43 43 44 46 46 42 37 33 32 34 37 38 36 31 28 27 27 27 23 17 14 17 19 19 17 13 7 4 4 5 7 7 6 5 5 5 7 6 6 5 7 9
41 41 40 41 46 49 46 41 37 35 37 40 39 36 32 30 28 28 27 24 19 18 19 20 20 17 13 8 5 3 4 5 6 5 5 6 5 5 5 4 5 7 9
37 39 39 40 46 49 45 39 34 33 36 39 38 36 33 29 27 26 26 25 23 22 22 22 21 18 14 9 5 3 3 4 5 6 6 6 5 3 3 4 6 7 8
38 39 41 43 46 47 43 38 33 31 33 34 34 33 30 26 23 22 23 24 24 23 23 22 21 18 14 10 7 5 3 3 3 5 6 5 4 3 3 5 6 7 7
39 40 41 43 44 43 40 37 35 34 33 30 29 28 26 24 22 20 20 22 23 22 21 20 19 16 13 11 10 8 4 2 2 3 5 6 5 4 4 5 6 6 6
34 35 37 39 39 35 34 34 36 36 32 26 24 26 25 23 22 20 18 19 20 20 20 17 16 15 12 11 11 8 4 2 1 1 4 6 6 6 5 5 6 6 6
24 28 32 33 32 30 29 31 34 35 29 23 22 25 26 23 21 19 17 16 17 18 18 16 16 15 12 11 10 8 5 3 1 1 3 5 6 6 6 5 5 5 6
20 24 28 28 28 28 29 31 33 31 27 25 24 24 24 23 20 18 16 17 18 19 19 18 17 15 13 11 10 8 6 5 2 1 1 2 3 5 6 6 5 6 6
20 22 25 26 27 28 30 32 32 28 25 27 27 24 23 21 20 19 18 18 20 21 21 19 17 15 13 11 9 7 6 6 4 2 1 0 1 3 5 7 7 7 7

GEFSSE_con_prob3kmehi_222.txt.gz
EHI
6 17 33 45 49 47 42 36 31 26 18 14 13 16 21 25 28 28 24 19 14 11 9 7 6 5 4 4 4 5 5 4 2 1 0 0 1 2 3 3 2 3 4
10 20 36 49 53 50 43 36 30 24 17 13 13 16 21 23 23 22 20 16 12 9 7 6 5 4 4 3 3 3 3 2 1 0 0 0 0 1 3 4 4 5 7
17 23 37 51 56 52 44 38 32 24 18 16 14 16 19 19 16 14 12 11 9 7 5 4 3 3 2 2 1 1 1 0 0 0 0 0 0 0 2 5 6 7 7
20 23 34 50 57 52 44 40 35 27 21 18 16 15 15 14 11 8 7 6 6 5 3 1 1 1 1 1 0 0 0 0 0 0 0 0 0 1 3 5 6 7 7
18 22 33 49 56 52 45 40 36 29 22 18 15 14 13 12 10 7 5 4 4 2 1 0 0 0 0 0 0 0 0 0 0 0 0 0 0 1 4 6 7 7 7
19 24 35 48 53 51 45 39 34 28 22 17 14 13 13 11 9 6 5 4 3 1 0 0 0 0 0 0 0 0 0 0 0 0 0 0 0 2 5 6 7 7 5
22 25 35 46 50 49 46 40 33 27 22 17 15 14 14 12 9 7 6 5 4 2 1 0 0 0 0 0 0 0 0 0 0 0 0 0 1 3 5 6 5 4 2
24 25 31 40 46 48 48 41 32 25 21 18 16 15 15 13 9 6 6 6 5 2 1 0 0 0 0 0 0 0 0 0 0 0 0 0 1 5 8 7 5 3 2
27 26 27 31 37 42 43 39 31 24 21 19 17 15 14 12 9 6 5 5 3 2 1 0 0 0 0 0 0 0 0 0 0 0 0 0 3 8 12 12 8 5 3
29 28 27 27 29 32 34 32 28 23 20 19 16 12 11 10 9 6 4 3 3 2 2 1 1 0 0 0 0 0 0 0 0 0 0 1 3 8 12 13 11 7 4
30 28 26 25 25 27 28 26 23 20 18 16 14 11 11 10 9 6 4 3 3 3 3 3 2 1 0 0 0 0 0 0 0 0 0 2 6 9 10 11 10 6 4
27 26 24 22 21 23 23 21 19 17 15 15 14 13 13 11 8 6 5 4 4 2 2 3 3 2 0 0 0 0 0 0 0 0 1 4 9 11 9 8 8 6 5
24 23 22 20 18 17 18 17 16 14 13 14 14 14 13 11 8 6 6 6 4 2 1 1 1 1 0 0 0 0 0 0 0 0 1 4 9 11 10 7 7 6 6
26 24 23 21 18 15 15 15 13 12 12 13 13 13 12 9 7 6 6 6 5 3 1 0 0 0 0 0 0 0 0 0 0 0 1 4 7 9 10 8 7 6 6
29 27 26 23 19 16 15 14 12 11 12 13 14 12 10 8 7 7 6 6 6 4 2 1 0 0 0 0 0 0 0 0 0 0 1 3 4 7 10 10 8 7 6
27 27 27 26 22 18 16 14 12 11 11 13 14 13 10 9 8 7 6 6 5 4 2 1 0 0 0 0 0 0 0 0 0 0 0 1 2 4 8 10 9 7 6
25 24 25 26 24 20 16 14 12 11 11 12 13 12 10 8 8 6 5 5 4 3 3 1 1 0 0 0 0 0 0 0 0 0 0 0 1 3 6 8 8 7 7
25 22 21 23 23 20 17 14 12 11 10 10 11 10 8 7 6 5 4 4 4 3 3 3 2 1 0 0 0 0 0 0 0 0 0 0 1 3 4 6 7 7 7
22 20 19 20 20 19 17 15 12 10 8 8 8 8 6 5 5 5 4 4 5 4 3 3 2 1 0 0 0 0 0 0 0 0 0 0 1 2 3 4 5 6 6
17 16 16 17 17 15 14 14 12 9 7 7 8 6 5 4 5 5 4 4 5 5 4 4 3 1 0 1 1 1 0 0 0 0 0 0 1 2 3 3 4 4 4
12 12 13 15 14 11 10 11 9 7 7 7 7 6 5 5 5 3 3 4 4 5 5 4 4 3 1 2 2 1 0 0 0 0 0 0 0 1 2 3 3 3 3
10 10 11 12 11 8 8 8 7 6 6 5 5 5 5 7 6 3 3 3 3 3 3 3 3 3 2 1 1 0 0 0 0 0 0 0 0 0 1 2 3 3 3
11 10 10 10 8 8 9 10 9 7 6 3 3 3 5 6 6 4 3 2 3 3 1 1 2 3 3 1 0 0 0 0 0 0 0 0 0 0 0 1 2 3 3
11 11 11 8 6 6 9 11 11 9 5 2 1 2 3 4 4 4 4 3 3 3 2 1 1 2 3 2 1 0 0 0 0 0 0 0 0 0 0 0 1 2 3
13 12 10 7 4 4 7 8 9 8 5 2 1 1 3 3 3 4 4 3 3 3 3 2 1 1 3 2 1 0 0 0 0 0 0 0 0 0 0 0 0 1 2
15 14 10 5 4 4 5 6 7 7 6 3 1 1 2 3 4 4 4 3 3 3 3 3 2 1 2 2 1 0 0 0 0 0 0 0 0 0 0 0 0 0 1

GEFSSE_con_prob3kmehi_228.txt.gz
EHI
7 16 30 33 32 35 42 50 57 61 62 61 60 60 58 53 42 32 25 20 15 11 8 7 7 8 9 8 7 5 2 0 0 0 0 0 0 0 1 0 0 1 1
14 21 32 35 35 39 44 50 56 60 62 61 59 58 56 49 40 30 23 19 15 11 8 8 8 9 9 9 8 6 2 0 0 0 0 0 0 0 1 0 0 0 1
24 28 34 37 39 43 46 47 50 55 57 57 55 54 51 45 36 26 20 17 15 12 9 9 9 9 9 8 8 6 2 1 0 0 0 0 0 0 0 0 0 0 0
29 31 35 37 41 45 48 48 49 52 52 50 48 48 46 40 32 23 17 16 15 13 10 9 9 8 6 5 5 4 2 0 0 0 0 0 0 0 0 0 1 0 0
27 28 32 38 42 45 49 52 54 55 52 48 46 46 42 35 27 20 16 15 15 13 10 8 7 5 4 3 3 3 1 0 0 0 0 1 1 1 0 0 1 1 0
26 26 31 40 44 46 48 52 55 56 53 49 46 42 36 29 23 17 13 12 13 12 9 6 4 4 3 3 3 3 2 0 0 0 0 1 2 1 1 1 1 1 1
27 27 34 43 47 46 46 47 50 50 48 46 43 36 30 24 19 14 10 8 9 10 7 3 3 3 3 3 3 2 1 0 0 0 0 0 1 1 1 1 2 2 2
26 28 36 44 46 44 41 40 42 44 43 41 36 30 24 21 18 14 9 6 5 5 4 2 1 2 3 3 3 1 0 0 1 1 0 0 1 1 0 1 3 4 5
23 28 34 40 42 40 38 36 36 39 39 36 31 26 22 19 16 12 8 5 3 3 2 1 0 1 2 3 2 1 0 1 2 2 1 1 1 1 0 0 2 5 7
21 26 32 37 38 37 37 37 35 34 32 30 26 23 19 15 13 10 7 5 3 3 3 1 1 1 1 2 1 0 0 1 3 4 2 1 1 1 1 2 4 5 6
22 24 29 33 35 35 35 36 34 29 25 22 22 21 17 13 11 9 8 5 4 3 3 2 2 1 1 0 0 0 0 1 2 2 2 1 1 1 4 7 7 5 3
23 24 25 28 31 30 28 28 28 26 21 17 18 20 17 13 11 10 8 6 4 4 3 2 2 1 1 1 0 0 0 0 0 1 1 1 2 3 5 8 9 6 4
24 23 22 22 25 24 22 22 23 22 19 17 18 19 18 16 13 10 9 8 7 5 4 3 3 3 3 2 1 0 0 0 0 0 1 3 4 4 5 7 8 6 5
23 22 20 19 20 20 19 19 20 19 17 17 18 19 19 18 15 12 10 9 9 6 5 5 5 5 5 4 2 0 0 0 0 0 1 3 4 5 5 5 4 4 4
21 20 19 19 19 18 16 15 14 13 13 15 17 18 18 16 14 12 11 10 8 6 4 5 5 5 4 3 2 0 0 0 0 0 0 1 3 4 4 3 2 1 1
17 18 18 18 18 17 14 10 7 6 7 10 13 14 14 13 12 12 11 10 8 6 4 4 4 4 3 2 1 0 0 0 0 0 0 1 2 2 2 2 1 0 1
14 16 18 18 17 15 11 7 5 5 5 6 7 10 12 11 11 11 11 10 9 7 5 4 4 3 3 2 0 0 0 0 0 0 0 0 1 1 1 1 0 1 1
15 17 18 17 15 12 9 5 5 6 6 5 6 8 10 10 10 11 11 10 9 7 5 4 3 3 3 2 1 0 0 0 0 0 0 0 0 1 1 0 0 1 1
13 15 16 15 13 11 7 4 4 4 5 6 6 6 7 9 9 9 9 9 8 7 5 4 3 3 3 2 1 0 0 0 0 0 0 0 1 2 1 0 0 0 0
8 10 12 12 11 10 7 4 3 2 2 3 3 2 3 5 6 6 6 6 6 5 4 3 3 3 3 2 1 0 0 0 0 0 0 0 1 2 2 1 1 1 0
4 6 8 9 8 7 5 4 3 2 0 0 0 0 1 2 2 2 2 3 4 4 3 3 3 3 3 2 1 0 0 0 0 0 0 0 1 2 2 1 2 2 1
3 4 6 6 6 5 3 2 2 1 0 0 0 0 0 0 0 0 0 1 2 3 3 3 3 3 3 2 1 0 0 0 0 0 0 0 0 1 2 2 3 3 3
2 2 4 6 6 4 2 1 1 0 0 0 0 0 0 0 0 0 0 0 1 1 2 3 3 3 3 1 1 0 0 0 0 0 0 0 0 0 1 2 2 3 3
1 2 3 4 4 3 2 1 0 0 0 0 1 0 0 0 0 0 0 0 0 0 1 1 2 3 3 2 1 0 0 0 0 0 0 0 0 0 0 1 1 2 2
2 2 2 2 1 1 1 1 0 0 0 0 0 0 0 0 0 0 0 0 0 0 0 0 1 1 2 3 2 1 0 0 0 0 0 0 0 0 0 0 0 1 1
3 3 1 0 0 0 0 0 0 0 0 0 0 0 0 0 0 0 0 0 0 0 0 0 0 0 1 3 2 1 0 0 0 0 0 0 0 0 0 0 0 0 0

GEFSSE_con_prob3kmehi_234.txt.gz
EHI
10 20 29 28 22 20 23 31 42 48 49 45 39 35 31 27 24 21 19 16 13 13 12 9 7 6 5 3 2 1 0 0 0 0 0 0 1 2 2 1 2 5 7
12 21 30 30 25 22 24 31 40 47 49 47 43 38 32 27 23 20 18 15 14 14 13 11 8 6 5 4 3 2 1 0 0 0 0 0 1 1 1 2 4 7 8
15 22 30 32 30 28 28 32 40 46 50 50 48 42 34 28 24 19 17 15 14 15 14 12 9 6 4 4 4 3 1 0 0 0 0 0 0 1 1 1 3 5 6
16 22 28 32 33 33 32 34 41 48 52 54 51 44 36 29 25 20 17 16 15 16 15 12 9 7 4 3 4 3 2 0 0 0 0 0 0 1 1 1 1 1 2
14 18 26 31 34 35 34 35 42 48 52 53 49 42 35 29 23 19 16 15 15 16 15 12 10 8 5 3 3 3 2 1 0 0 0 0 1 2 2 0 0 0 1
11 15 25 33 36 38 36 36 40 44 46 45 42 37 31 26 21 17 15 14 14 14 13 13 12 9 6 3 3 3 2 1 0 0 0 0 1 3 2 0 0 0 0
7 12 25 34 38 37 36 35 36 37 37 37 36 32 27 23 19 17 15 14 13 12 11 12 12 10 6 4 3 3 3 1 0 0 0 0 1 3 2 0 0 0 0
3 11 23 31 32 32 33 33 32 31 31 32 31 28 24 22 20 19 17 16 15 13 11 10 9 8 5 3 3 2 2 1 0 0 0 0 2 2 1 0 0 0 0
3 9 20 25 24 25 28 28 27 26 28 28 26 23 22 21 20 19 18 18 17 14 11 8 6 5 5 4 2 2 1 0 0 0 0 1 3 2 0 0 0 0 1
6 10 17 21 20 20 22 23 23 23 25 24 20 18 18 17 16 15 16 17 17 13 8 5 5 4 5 4 3 2 2 1 0 0 1 2 3 2 0 0 0 0 1
12 13 17 20 19 17 17 19 21 21 20 18 14 14 13 12 10 10 12 14 14 10 7 5 4 4 3 2 2 3 2 1 1 1 2 4 4 1 0 0 0 0 1
16 17 20 21 19 17 18 21 22 20 17 13 12 11 11 11 11 9 10 12 10 8 6 5 4 3 2 1 1 2 2 2 2 1 3 6 4 1 0 0 0 0 0
16 19 21 22 20 20 22 24 23 22 19 14 12 12 12 14 14 13 13 13 9 7 6 6 4 2 2 1 1 1 2 2 2 1 3 7 5 1 0 0 0 1 1
15 19 22 22 22 24 26 25 24 22 21 18 16 14 14 15 16 15 16 14 12 9 9 8 6 3 1 1 0 0 1 2 1 1 3 7 6 2 1 1 1 1 3
16 20 23 23 23 26 29 27 23 20 20 19 18 16 15 15 15 16 17 16 15 14 12 10 8 4 1 0 0 0 0 0 1 1 3 6 6 4 3 2 1 1 3
17 20 23 24 24 26 27 25 20 16 17 17 17 17 15 14 14 15 16 16 16 15 14 11 8 6 4 2 0 0 0 0 0 1 3 5 5 4 3 1 0 1 3
20 21 23 23 23 23 21 19 17 15 13 13 15 16 14 13 13 14 14 15 15 14 13 11 9 7 6 4 2 1 1 0 0 1 1 2 2 1 1 0 0 2 4
24 25 24 21 20 18 17 17 18 17 14 13 14 15 14 13 13 13 13 14 15 13 11 10 9 7 5 4 4 4 2 1 1 2 1 1 1 1 0 0 0 2 5
25 26 25 22 19 17 17 18 20 20 16 14 15 16 15 14 13 13 13 14 15 14 11 10 10 8 5 4 4 5 4 3 3 3 3 2 2 1 0 0 0 2 3
21 23 25 26 24 21 19 18 17 16 14 13 13 14 14 13 11 11 10 11 12 13 13 12 12 10 7 6 4 4 5 5 4 4 3 3 3 2 1 0 0 1 2
15 18 23 25 24 22 19 16 13 11 9 9 9 10 10 9 7 6 7 9 11 13 13 12 12 10 9 8 6 5 5 5 4 3 3 3 3 3 2 1 1 3 4
11 13 16 17 17 17 16 14 12 9 7 6 7 7 6 5 4 4 5 8 11 12 10 9 10 8 8 10 10 8 6 4 3 3 4 4 3 3 3 1 1 4 5
8 9 11 14 14 13 13 12 12 10 7 6 7 7 5 4 5 6 6 7 9 10 9 9 9 7 6 9 10 9 7 4 3 4 4 4 4 3 2 1 1 3 5
9 8 11 14 14 12 10 9 9 9 7 6 7 8 7 6 6 8 8 7 8 10 10 10 10 8 7 9 11 10 7 5 3 3 3 3 3 3 2 2 3 6 8
9 9 10 13 15 13 10 7 7 7 6 7 9 10 9 7 7 8 9 9 10 10 10 11 10 10 9 10 11 10 7 6 4 3 2 2 3 3 3 3 5 9 11
10 9 9 12 16 15 11 8 6 6 6 8 11 12 10 7 7 8 9 11 11 11 11 12 11 10 11 11 11 9 7 6 5 3 2 2 3 3 3 4 6 9 10

GEFSSE_con_prob3kmehi_240.txt.gz
EHI
32 33 35 33 26 21 17 12 9 10 10 8 6 5 5 6 8 12 14 14 14 13 10 7 4 3 2 1 0 1 2 3 3 3 3 4 5 6 8 11 11 12 16
31 31 34 34 29 25 21 15 12 12 12 11 9 8 7 6 8 10 12 12 12 12 10 7 4 3 3 2 1 1 2 3 3 3 3 4 5 6 7 9 10 12 14
28 28 30 32 30 28 26 20 16 15 15 14 11 9 8 7 7 9 10 10 10 10 9 7 4 3 3 3 2 1 2 3 3 3 3 3 5 9 9 8 8 10 11
28 27 28 30 30 30 29 24 20 18 17 16 13 11 10 9 9 9 9 9 9 9 8 7 6 5 4 3 2 1 1 2 3 3 3 2 6 13 14 9 7 8 9
30 29 31 34 33 31 29 25 21 20 18 16 15 14 13 12 11 10 9 9 9 8 8 9 9 9 7 4 3 1 1 2 3 3 2 2 8 16 16 10 8 8 8
31 31 34 38 37 32 28 24 22 20 18 16 15 15 15 14 13 12 11 10 9 9 9 11 12 12 9 5 3 3 2 3 3 3 2 5 12 19 18 12 9 9 8
32 33 36 39 39 35 29 25 22 19 17 16 16 15 14 14 14 13 13 11 10 10 10 11 12 12 10 6 4 3 3 3 3 3 6 10 17 24 20 13 11 9 8
33 35 37 38 39 37 32 27 24 20 17 17 16 15 14 13 12 12 12 12 12 11 10 11 13 12 10 7 5 4 4 3 3 4 8 15 23 26 22 15 12 10 9
31 34 34 34 34 34 32 28 26 23 20 18 15 14 14 13 11 10 10 12 13 12 11 12 13 12 9 7 5 4 4 4 3 4 8 17 28 31 24 17 13 11 10
27 29 30 28 28 28 26 25 26 24 20 16 14 14 14 12 10 8 9 11 13 13 13 13 13 11 8 6 5 4 4 4 4 4 8 20 33 35 27 18 14 11 10
24 25 25 26 25 22 22 24 25 22 17 14 13 13 13 11 8 7 8 12 15 14 14 14 14 11 7 5 4 4 4 4 5 5 11 24 34 34 27 20 15 12 11
23 21 23 26 24 20 23 29 27 22 17 14 13 13 13 12 9 8 11 14 16 15 14 14 13 10 6 4 4 4 4 5 5 5 12 24 31 29 24 20 16 13 13
22 22 24 29 29 28 31 34 31 26 22 19 17 17 16 15 15 14 15 16 16 13 13 13 12 9 6 4 3 4 5 5 4 5 10 19 25 25 21 16 14 12 13
26 27 31 37 39 39 39 35 30 28 26 24 23 22 21 20 19 18 18 18 16 14 14 14 11 8 6 5 4 3 4 4 3 3 7 13 18 19 18 15 12 10 9
32 35 39 43 45 45 41 34 29 29 29 28 26 24 23 21 19 18 19 20 18 16 15 14 11 8 8 7 5 3 2 2 1 2 4 9 14 16 16 14 11 8 7
39 39 41 44 45 45 42 37 33 33 32 30 27 23 21 19 17 17 17 17 15 14 14 13 10 9 10 9 5 3 1 1 2 3 3 6 11 14 14 13 10 7 5
44 43 41 41 44 46 45 41 38 34 31 29 26 24 20 17 16 17 15 13 11 12 13 12 10 9 8 7 5 3 2 3 5 6 4 4 6 9 11 13 12 9 6
47 46 43 41 44 47 46 43 38 31 27 26 27 25 21 17 16 16 14 11 11 12 12 11 10 7 4 3 4 4 4 7 9 9 6 4 3 4 7 12 14 12 10
45 45 43 42 44 47 46 43 37 30 25 26 26 24 21 17 14 14 13 13 14 13 11 9 8 6 4 3 3 4 6 9 10 10 8 6 4 3 4 8 11 12 12
40 42 43 43 46 47 45 43 38 30 25 23 22 21 20 16 13 12 13 15 17 14 10 8 7 6 6 5 3 2 4 7 10 10 10 8 6 4 4 5 7 9 10
34 38 41 44 46 47 44 42 37 30 25 20 17 16 17 16 13 12 14 17 18 14 12 10 8 6 7 7 4 2 2 4 8 9 9 8 6 5 4 5 5 6 7
31 33 38 42 44 44 42 38 34 29 24 17 13 13 15 16 14 13 14 17 17 15 13 12 9 6 6 7 6 3 1 2 4 7 7 6 5 4 4 4 5 5 5
30 31 34 38 40 40 37 34 29 25 20 15 11 12 14 15 14 14 14 15 16 14 12 11 9 7 7 7 6 4 2 1 2 4 5 5 5 4 3 3 4 4 5
29 31 35 38 37 35 33 30 26 21 16 13 11 11 14 15 14 14 14 14 13 12 10 10 9 9 9 8 6 5 4 3 3 3 4 5 6 4 3 3 3 4 5
26 31 36 38 37 33 31 28 25 19 15 13 11 12 14 14 13 13 13 12 11 10 10 10 10 10 9 8 7 5 5 6 5 4 3 4 5 4 4 4 4 5 6
25 29 35 37 36 33 30 28 24 19 16 15 13 12 13 14 13 11 11 12 11 10 10 10 10 10 9 9 8 6 6 8 7 5 4 4 4 4 5 5 5 5 5

GEFSSE_con_prob3kmehi_246.txt.gz
EHI
1 7 21 33 36 35 32 29 25 20 16 15 15 15 18 21 22 20 16 16 14 8 2 0 1 1 1 2 2 1 0 0 1 2 4 4 3 3 3 2 1 5 9
3 8 21 33 37 35 31 27 24 19 13 11 11 11 12 14 15 15 14 14 12 6 2 1 1 1 2 3 3 2 1 0 1 2 3 2 2 2 3 2 1 4 7
9 12 21 32 37 34 29 25 22 16 10 7 6 7 8 9 9 10 11 12 10 6 2 2 2 1 2 3 3 2 1 0 1 1 1 1 1 2 3 3 2 2 4
16 14 20 31 36 33 28 23 21 16 11 7 6 6 7 8 9 10 10 10 9 6 4 3 3 1 1 1 2 2 1 0 0 0 0 0 0 1 4 4 3 3 4
18 16 22 33 36 32 28 25 22 19 15 12 11 9 8 9 10 9 8 9 8 7 6 4 3 1 0 0 1 1 0 0 0 0 0 0 0 1 4 5 5 5 5
17 17 26 37 37 30 26 25 24 21 18 16 15 14 12 11 9 7 7 7 7 7 6 4 2 1 0 0 0 0 0 0 0 0 0 0 0 2 5 5 4 4 5
16 18 28 39 37 31 27 24 24 22 19 18 18 16 13 11 9 8 7 6 6 5 4 2 1 0 0 0 0 0 1 0 0 0 0 0 1 4 7 7 5 5 5
15 17 25 34 36 34 32 28 25 22 19 18 18 16 13 9 9 9 8 7 5 4 3 1 1 0 0 0 0 0 0 0 0 0 0 0 2 5 8 10 8 7 6
19 19 22 26 29 33 34 31 28 24 21 18 16 14 11 8 8 9 8 7 5 4 3 2 2 1 1 2 1 0 0 0 0 0 0 0 2 4 7 10 9 8 7
20 21 21 22 23 25 27 27 26 25 21 16 13 11 8 6 6 7 7 7 6 5 4 3 3 3 3 3 3 1 0 0 0 0 0 1 3 4 7 9 10 9 8
19 19 20 21 21 20 19 19 20 20 16 12 9 7 6 4 4 5 6 7 6 5 4 3 4 3 3 3 2 1 0 0 0 0 0 3 6 8 9 10 11 10 8
16 15 16 17 17 15 15 15 16 14 11 10 8 6 4 3 3 4 5 6 5 4 4 3 3 3 3 3 2 2 1 0 0 0 1 4 9 11 11 11 11 9 7
13 13 12 11 10 9 11 13 14 12 8 7 7 6 6 4 3 3 4 5 4 4 4 4 3 3 3 3 3 3 2 1 1 0 1 4 9 10 10 10 10 8 7
14 12 10 9 7 6 8 11 12 9 5 4 6 7 7 6 4 3 3 4 3 3 3 3 3 3 3 3 3 3 3 3 2 1 0 3 6 8 7 8 8 8 9
16 13 11 11 10 9 9 9 8 5 2 3 6 7 7 7 6 5 4 4 2 1 2 3 3 2 2 3 3 3 3 3 2 1 0 2 6 8 8 7 7 7 7
15 12 10 12 13 11 10 6 4 3 1 2 4 5 6 6 6 6 5 4 3 2 2 3 2 1 1 1 2 2 2 1 1 0 0 2 5 9 10 10 8 7 6
11 11 10 11 13 12 9 5 2 2 2 2 3 4 4 4 4 4 4 4 3 3 2 2 2 1 0 0 1 1 1 0 0 0 0 1 3 6 9 10 11 9 8
10 11 11 12 13 13 10 7 4 4 4 5 5 4 4 3 3 3 3 3 3 3 1 1 1 1 1 0 0 0 0 0 0 0 0 0 0 2 4 8 11 12 11
9 10 11 11 13 13 11 9 7 6 5 5 6 5 4 3 3 3 3 3 3 3 1 0 1 2 1 0 0 0 0 0 0 0 0 0 0 0 1 4 8 10 11
8 9 9 10 11 11 10 9 7 6 4 4 4 4 3 3 3 3 3 3 3 3 2 1 1 1 1 0 0 0 0 0 0 0 0 0 0 0 0 1 3 6 8
9 8 8 9 10 10 9 8 7 5 3 2 2 2 3 3 3 3 3 3 3 3 2 1 1 0 0 0 1 0 0 0 0 0 0 0 0 0 0 0 1 2 3
7 8 8 9 10 10 10 9 7 5 2 1 1 1 1 2 3 3 2 2 2 2 1 1 0 0 0 0 0 0 0 0 0 0 0 0 0 0 0 0 0 1 1
7 8 9 10 10 11 10 9 7 4 2 1 0 0 0 1 1 2 2 2 1 2 1 0 0 0 0 0 0 0 0 0 0 0 0 0 0 0 0 0 0 0 1
7 8 9 9 10 10 10 9 6 4 3 1 0 0 0 0 0 1 1 1 1 2 1 0 0 0 0 0 0 0 0 0 0 0 0 0 0 0 0 0 0 0 0
6 8 9 10 10 9 9 8 6 4 3 2 1 1 0 0 0 0 1 2 2 2 1 0 0 0 0 0 0 0 0 0 0 0 0 0 0 0 0 0 0 0 0
6 7 10 11 10 8 8 7 5 4 3 3 2 2 1 0 0 0 1 2 3 2 2 1 0 0 0 0 0 0 0 0 0 0 0 0 0 0 0 0 0 0 0

GEFSSE_con_prob3kmehi_252.txt.gz
EHI
11 17 25 27 25 27 32 40 46 49 49 46 46 47 44 37 32 25 20 16 14 14 12 10 7 5 3 2 1 0 2 4 3 1 0 0 0 0 0 0 1 0 0
16 20 26 26 25 27 31 36 40 43 44 43 43 43 39 32 28 23 19 16 14 13 10 8 5 3 1 1 1 1 2 4 3 1 0 0 0 0 0 0 1 1 1
24 24 25 25 25 29 31 33 35 36 37 37 37 35 30 25 21 18 16 14 13 12 10 6 4 2 1 1 1 1 1 2 1 0 0 0 0 0 0 0 1 3 3
26 24 23 24 28 31 33 34 34 34 33 32 30 26 22 19 17 14 12 10 10 11 10 6 4 4 4 3 2 1 0 0 0 0 0 0 0 0 0 2 3 4 5
23 22 23 26 30 32 34 35 35 34 33 30 27 24 20 17 14 12 9 7 7 8 8 6 6 6 7 6 3 1 0 0 0 0 0 0 0 0 2 4 5 6 6
22 21 22 28 32 34 36 38 38 35 32 30 27 26 24 18 12 10 8 6 5 5 4 4 5 6 7 7 5 2 1 0 0 0 0 0 1 2 4 5 6 6 6
22 21 23 28 33 35 36 37 37 35 31 29 27 27 25 20 14 12 9 6 5 5 3 3 4 5 6 6 5 3 2 1 0 0 0 0 1 3 6 7 7 7 6
23 23 24 28 31 33 33 33 33 33 31 27 24 24 22 20 18 16 13 8 5 4 3 3 4 4 5 4 3 3 3 2 0 0 0 0 1 3 6 7 8 8 7
24 24 24 25 27 31 33 33 32 32 30 25 21 20 18 17 17 17 14 11 7 4 3 4 4 4 4 3 2 1 1 1 0 0 0 1 2 2 3 5 8 9 9
23 22 22 22 25 29 34 36 34 30 26 21 18 16 15 14 14 14 13 11 9 6 4 3 4 4 4 3 1 1 0 0 0 0 0 2 3 2 2 4 7 8 9
22 20 18 19 21 26 32 35 32 26 21 18 15 13 12 11 11 11 10 9 8 6 4 3 2 3 4 4 2 1 1 1 2 1 1 1 2 3 3 4 6 7 8
21 18 16 16 19 24 29 30 27 21 17 15 14 13 11 9 8 8 7 5 5 5 4 2 1 2 3 4 3 2 2 3 3 3 2 1 1 2 3 3 5 7 8
18 15 14 15 17 21 24 25 22 18 14 13 13 12 10 8 6 6 5 4 3 4 4 3 2 1 2 4 5 4 3 3 3 4 4 3 2 2 3 3 4 5 6
12 11 11 12 13 15 18 19 18 14 11 11 11 10 9 8 7 7 7 6 4 4 4 4 2 1 0 2 3 3 3 3 4 5 5 5 5 4 3 3 3 3 3
7 7 7 7 9 10 12 14 13 10 9 9 9 8 7 6 7 7 7 7 5 4 4 4 3 1 0 0 1 1 1 1 3 5 4 4 4 4 3 3 1 1 2
5 6 5 4 5 7 9 10 9 8 7 6 6 6 5 4 5 5 5 5 4 4 4 3 3 2 1 0 0 0 0 1 2 3 3 2 1 2 3 2 1 0 1
6 6 5 4 3 4 6 7 7 5 4 3 3 4 4 3 3 4 3 3 3 3 3 3 3 3 2 1 1 0 0 0 1 3 2 1 0 1 2 2 1 0 0
8 6 4 3 1 1 2 3 3 3 2 2 2 2 3 3 3 3 3 3 3 3 3 3 3 3 3 2 1 0 0 0 1 2 2 1 0 0 1 1 0 0 0
7 5 3 1 0 0 0 1 1 1 0 1 1 1 2 3 3 3 3 3 3 2 2 2 2 3 3 2 1 0 0 0 0 1 1 0 0 0 0 0 0 0 0
4 3 1 0 0 0 1 2 1 0 0 0 0 1 2 3 3 3 3 3 3 2 1 1 2 2 2 1 0 0 0 0 0 0 0 0 0 0 0 0 0 0 0
5 3 1 0 0 1 2 3 2 1 0 0 0 0 1 1 2 3 3 3 3 3 2 2 2 2 1 0 0 0 0 0 0 0 0 0 0 0 0 0 0 0 0
5 4 3 1 2 3 4 5 5 2 0 0 0 0 0 0 1 2 3 3 3 3 3 3 3 2 1 0 0 0 0 0 0 0 0 0 0 0 0 0 0 0 0
3 3 3 4 5 7 8 9 9 5 1 0 0 0 0 0 0 1 1 2 2 3 3 2 1 1 0 0 0 0 0 0 0 0 0 0 0 0 0 0 0 0 0
1 2 4 6 9 11 12 12 12 9 4 1 1 0 0 0 0 0 0 0 1 2 3 2 0 0 0 0 0 0 0 0 0 0 0 0 0 0 0 0 0 0 0
0 2 5 8 10 11 12 12 12 10 6 3 1 0 0 0 0 0 0 0 0 1 2 1 0 0 0 0 0 0 0 0 0 0 0 0 0 0 0 0 0 0 0
0 2 6 8 9 11 11 11 10 9 6 4 1 0 0 0 0 0 0 0 0 0 1 1 0 0 0 0 0 0 0 0 0 0 0 0 0 0 0 0 0 0 0

GEFSSE_con_prob3kmehi_258.txt.gz
EHI
12 25 37 34 29 27 27 30 35 39 39 36 33 29 25 21 20 20 18 16 14 11 9 6 4 4 3 2 2 2 3 3 1 0 0 0 0 0 0 0 0 0 1
15 26 36 35 30 28 29 32 35 38 38 36 32 28 24 20 19 18 17 16 14 11 9 7 5 4 2 1 1 1 2 2 1 0 0 0 0 0 0 0 0 0 1
20 25 32 35 33 31 32 33 35 37 37 35 32 28 24 20 18 17 17 17 15 12 9 7 6 4 2 1 1 1 1 1 1 0 0 0 0 0 0 0 1 1 1
24 25 28 32 33 33 34 35 35 35 35 33 31 28 24 22 20 18 16 15 14 12 10 8 7 6 4 2 2 1 1 0 0 0 0 0 0 0 0 0 1 2 2
24 24 27 30 31 34 35 35 34 33 33 32 30 27 23 20 19 17 14 12 10 10 10 9 8 8 6 3 1 1 1 1 1 0 0 0 1 1 1 0 1 1 2
20 22 26 30 30 32 35 34 33 32 32 33 32 27 21 16 14 13 12 10 8 7 8 9 8 8 7 4 1 0 1 1 1 0 0 0 2 3 2 0 0 1 3
16 20 27 32 31 30 31 32 30 29 30 32 33 29 21 14 11 10 9 9 7 5 5 6 6 6 7 6 3 1 1 1 0 0 0 0 3 5 4 1 1 3 4
13 18 28 33 32 28 28 30 29 29 29 30 32 29 22 15 11 10 8 8 6 4 2 3 4 5 6 5 4 4 4 1 0 0 0 1 4 5 4 2 2 4 6
12 17 24 29 30 27 27 29 31 31 29 28 28 25 21 16 12 11 9 9 8 5 3 3 4 5 5 4 3 5 4 2 0 0 0 2 5 5 3 2 3 5 7
11 15 18 21 24 24 25 28 29 28 27 25 22 20 17 14 11 10 10 11 10 7 5 5 6 6 6 5 4 4 4 2 0 0 0 3 6 5 3 3 3 5 7
12 12 14 16 19 20 22 26 26 23 22 19 16 14 13 12 10 8 9 11 10 7 5 4 4 5 5 5 5 5 4 2 1 0 1 5 7 5 4 4 4 4 5
15 12 12 15 17 18 21 25 25 22 19 15 11 11 11 12 12 9 9 10 8 5 4 3 3 3 4 4 4 5 5 3 2 1 2 6 8 6 4 4 4 3 3
16 13 12 15 17 19 22 25 25 24 21 17 12 11 12 15 14 11 9 9 7 5 4 3 4 3 3 3 3 5 6 5 3 2 4 8 10 7 4 4 5 4 4
17 14 12 15 18 20 23 25 25 25 23 20 16 13 15 17 15 11 9 8 8 7 5 5 4 3 3 3 3 4 5 5 4 4 5 8 10 7 4 4 5 6 6
16 14 12 14 18 22 24 25 26 25 23 20 16 13 13 15 14 10 8 8 8 9 8 6 5 3 2 2 2 2 3 3 3 4 5 6 7 7 5 4 4 4 5
13 12 12 14 17 21 24 25 24 23 21 19 15 10 8 10 10 8 6 5 6 8 8 5 4 4 2 1 1 1 1 1 2 3 4 5 5 4 4 4 3 2 2
11 12 12 12 15 19 21 20 19 19 18 17 13 8 6 7 7 6 4 3 5 7 7 5 4 5 4 1 0 0 1 1 2 3 4 4 3 2 3 2 2 2 2
11 12 12 12 15 18 19 17 15 15 15 14 11 7 5 6 5 3 3 3 4 6 7 5 4 5 4 2 1 0 1 1 1 1 1 1 1 1 2 1 1 1 2
13 13 12 13 16 18 18 19 19 16 14 11 9 7 6 5 3 1 1 2 3 5 5 4 4 5 5 3 1 0 1 1 0 0 0 0 0 1 1 1 0 1 2
13 12 12 14 18 18 18 20 20 17 14 11 8 7 6 5 3 1 1 1 2 3 3 3 5 6 5 4 2 1 2 1 1 1 0 0 0 0 0 0 0 0 1
11 11 13 15 18 18 18 18 17 14 13 11 8 7 7 5 3 2 1 1 1 3 3 4 6 6 5 4 3 3 3 3 3 2 1 0 0 0 0 0 0 1 1
10 11 14 17 18 18 17 16 14 11 10 9 8 7 6 5 4 2 1 0 1 3 4 5 7 6 4 3 3 3 3 3 2 1 0 0 0 0 0 0 0 1 2
9 11 15 18 19 19 17 14 12 10 8 8 8 8 7 6 4 2 0 0 1 2 3 4 5 5 3 3 3 3 3 2 1 0 0 0 0 0 0 0 0 1 2
7 9 15 18 20 21 20 15 12 11 9 9 9 9 10 9 6 2 0 0 1 1 1 2 3 3 3 3 3 3 4 4 2 0 0 0 0 0 0 0 0 1 2
6 8 13 17 19 21 22 19 16 14 13 12 11 12 13 12 8 4 1 0 0 0 1 1 3 3 3 3 4 5 6 5 3 1 1 0 0 0 0 0 0 1 2
6 8 13 16 18 20 21 20 18 16 15 14 13 14 16 14 10 5 1 0 0 0 1 2 3 3 4 4 5 7 6 5 2 2 2 1 1 1 0 0 0 0 1

GEFSSE_con_prob3kmehi_264.txt.gz
EHI
37 40 43 37 27 21 15 11 9 10 9 7 5 6 8 9 10 9 10 10 9 8 7 7 6 4 3 4 4 3 1 0 0 0 0 1 2 4 4 2 1 3 6
42 41 41 37 29 23 17 12 10 10 10 8 6 7 8 9 10 9 9 9 8 7 8 7 5 5 4 4 3 1 0 0 0 0 0 0 2 4 5 3 3 4 6
44 37 36 37 32 26 20 15 11 11 12 10 7 7 9 10 10 9 8 8 7 6 6 5 5 5 5 3 2 0 0 0 0 0 0 0 2 5 6 4 3 4 5
40 35 35 39 34 25 19 15 12 11 12 11 8 7 9 10 10 9 8 7 6 5 4 3 4 4 4 3 2 0 0 0 1 0 0 1 4 8 9 7 4 3 3
36 34 38 41 34 24 17 14 12 10 10 10 9 8 9 9 9 9 7 5 5 4 3 2 2 2 2 2 2 1 0 1 1 0 0 1 5 11 13 10 6 3 1
32 33 38 42 38 27 20 16 13 10 9 9 10 9 9 8 8 8 5 4 3 3 3 2 1 1 1 1 2 1 1 1 0 0 1 2 7 14 15 10 5 3 1
31 34 38 43 42 34 27 22 18 14 11 10 10 9 9 8 7 6 4 2 3 3 3 3 3 3 2 1 1 1 1 0 0 0 2 4 10 17 17 10 6 5 4
32 35 37 41 43 42 37 31 25 19 14 12 11 11 10 8 6 5 4 3 4 5 5 5 5 5 3 1 0 0 0 0 0 0 2 6 13 21 20 13 9 8 7
32 34 33 33 38 41 40 36 30 24 18 15 14 12 10 8 7 7 5 5 6 8 8 7 7 7 5 2 0 0 0 0 0 0 2 7 16 22 20 13 8 8 9
30 32 30 27 28 30 33 35 33 27 21 18 16 13 10 8 7 7 6 7 9 11 10 9 9 9 7 5 3 2 1 0 0 0 3 11 21 24 18 11 7 6 7
29 30 29 27 24 23 25 31 32 27 21 17 15 12 9 7 6 5 6 9 11 12 11 11 11 10 9 8 7 7 4 1 0 1 5 15 26 25 18 11 6 5 5
30 29 30 30 28 26 27 31 29 23 18 15 12 11 10 10 8 7 9 11 12 12 10 9 9 9 7 7 8 8 5 2 0 1 6 17 27 25 18 12 8 5 5
27 29 32 32 30 30 32 33 26 20 17 13 11 12 13 13 12 11 12 13 12 11 10 8 8 7 5 5 5 5 4 3 1 1 6 17 24 21 16 12 9 7 6
25 28 32 33 33 34 37 34 27 22 19 16 14 14 14 14 13 12 13 12 9 9 10 9 8 6 4 3 3 3 3 4 3 3 7 15 19 17 14 11 8 6 6
30 30 32 35 38 41 42 37 29 26 24 22 21 17 14 13 12 11 11 11 9 9 10 9 7 6 5 3 2 2 3 3 3 3 6 12 15 14 13 11 7 4 3
37 36 34 35 39 43 43 39 34 30 27 27 27 22 16 14 13 11 11 11 10 9 10 9 7 5 4 3 1 1 2 2 2 3 5 9 10 11 11 11 8 4 2
39 39 34 32 35 38 37 37 36 32 27 28 29 27 21 16 14 13 12 11 9 9 11 10 6 2 2 1 1 0 1 2 2 2 5 6 6 6 7 9 9 6 4
41 38 33 30 31 31 32 34 35 33 29 28 29 29 24 18 15 14 13 11 9 9 10 9 5 2 1 1 1 1 2 3 2 2 3 4 4 3 4 6 7 6 4
46 40 35 33 30 28 30 32 33 34 33 30 29 28 25 20 17 15 13 11 9 9 9 7 5 3 2 2 2 2 4 5 5 3 2 3 3 3 2 3 4 4 3
50 45 40 38 32 28 28 30 32 34 33 30 27 27 26 23 19 15 13 12 9 7 7 6 5 4 4 4 3 3 5 6 6 6 3 2 2 3 3 3 4 3 3
49 47 44 40 34 28 27 27 29 31 30 27 26 27 26 22 18 15 14 14 11 7 5 4 4 4 4 5 4 3 4 5 5 6 5 3 2 2 3 4 5 5 4
46 45 43 39 33 27 25 26 27 28 27 26 26 26 24 21 17 14 13 14 12 8 6 4 3 3 3 4 4 3 2 3 4 5 6 5 4 4 4 3 4 6 6
41 41 39 37 33 27 26 27 27 26 25 25 25 24 22 20 18 15 13 13 11 9 8 6 4 4 4 3 3 3 3 4 5 5 4 4 5 6 5 2 3 4 4
33 35 36 36 33 28 26 26 26 24 23 23 23 24 22 20 18 16 15 15 12 9 8 7 6 5 6 5 4 4 4 6 7 5 3 2 3 4 4 3 3 2 2
26 29 33 35 32 28 25 24 24 22 20 19 22 24 24 22 19 16 16 16 14 9 7 8 8 8 9 8 7 6 6 8 8 5 2 0 1 1 3 4 3 3 2
22 26 31 34 32 28 24 22 21 21 19 19 21 23 24 24 19 15 15 16 14 9 7 7 9 10 10 10 10 8 7 8 7 3 1 0 0 0 2 3 4 3 3

GEFSSE_con_prob3kmehi_270.txt.gz
EHI
8 20 39 50 49 42 36 30 22 15 13 12 10 8 9 10 12 15 18 17 15 13 10 6 3 4 5 4 3 3 5 5 4 2 1 0 1 2 2 1 2 3 4
12 21 39 51 49 42 36 32 25 17 13 10 8 8 9 10 12 14 15 14 13 11 9 5 2 2 3 4 3 3 4 3 2 1 0 0 1 1 1 3 4 5 6
19 23 37 50 50 44 38 35 29 20 12 8 7 7 9 10 11 12 12 11 10 9 7 5 3 2 2 3 3 3 2 1 1 1 0 0 0 1 3 6 7 7 7
21 23 33 47 51 46 40 35 29 21 13 8 7 7 8 10 11 11 10 9 7 8 8 7 5 3 3 3 2 1 1 2 2 1 0 0 0 1 4 8 10 9 7
17 20 32 46 50 46 40 34 28 21 15 10 7 6 8 10 11 11 9 7 5 6 7 7 5 3 2 2 1 0 1 2 2 1 0 0 1 3 5 8 10 9 8
14 20 33 46 49 44 41 36 30 22 17 12 8 7 8 10 11 10 8 5 4 4 4 4 3 1 1 1 0 0 1 2 1 0 0 0 1 4 6 8 9 7 7
19 24 34 44 47 45 43 38 32 24 18 14 11 9 9 10 10 8 6 5 5 3 2 1 1 0 0 0 0 0 1 1 0 0 0 0 2 5 7 8 7 5 4
24 27 33 40 44 45 44 39 32 25 19 16 13 11 11 10 8 7 6 5 5 3 1 0 0 0 0 0 0 0 0 0 0 0 0 0 3 7 9 9 7 5 3
25 29 34 36 37 40 40 37 31 25 20 17 14 13 11 9 7 6 6 6 6 5 2 0 0 0 0 1 2 2 1 0 0 0 0 1 3 7 10 10 7 5 5
28 30 32 31 30 31 33 34 31 25 20 16 13 12 10 7 5 4 5 6 7 5 3 1 0 0 0 1 4 4 2 0 0 0 0 1 3 6 10 10 8 6 6
29 28 26 25 23 24 27 29 28 23 18 14 11 10 9 6 3 3 4 5 5 4 2 1 0 0 0 1 2 2 1 0 0 0 1 2 3 6 9 10 9 7 7
29 25 22 21 20 21 23 24 23 19 15 11 10 9 7 5 3 2 2 3 2 1 1 2 1 0 0 1 1 0 0 0 0 0 1 4 5 6 9 10 9 8 6
26 25 24 22 20 20 20 21 21 18 14 10 8 7 5 5 3 1 1 2 1 1 3 4 4 2 1 2 1 0 0 0 0 0 1 5 7 7 8 8 8 6 5
23 23 23 23 22 20 19 19 21 20 15 10 7 5 4 5 4 1 0 1 2 3 4 5 5 3 3 2 1 0 0 0 0 0 1 3 5 6 7 7 6 5 4
23 22 22 21 21 20 18 18 20 19 16 12 9 6 5 6 5 3 1 0 1 2 4 4 4 3 3 2 1 0 0 0 0 0 1 1 3 6 9 9 7 5 5
25 24 22 20 19 18 16 17 19 17 14 12 10 7 6 6 4 3 2 0 0 1 3 3 3 3 3 2 1 0 0 0 0 0 0 0 2 7 10 10 8 6 5
26 25 23 20 17 16 16 15 16 14 11 10 9 7 7 6 4 3 1 0 0 1 2 3 3 3 3 3 1 0 0 0 0 0 0 0 1 4 6 7 7 6 5
26 25 24 21 18 17 18 17 15 12 11 9 7 5 5 5 4 2 1 0 0 1 2 3 3 3 3 3 2 0 0 0 0 0 0 0 0 1 2 3 5 6 6
25 25 24 23 21 20 20 19 16 14 11 9 6 4 5 5 4 2 1 0 0 0 1 2 3 3 3 3 1 0 0 0 0 0 0 0 0 0 0 1 3 5 6
21 22 22 22 21 20 20 20 18 14 11 8 6 5 5 5 4 3 2 1 1 0 0 1 1 2 2 2 1 0 0 0 0 0 0 0 0 0 0 0 1 3 5
16 18 19 20 19 18 19 19 18 15 12 9 7 7 5 5 5 4 3 2 1 0 0 0 0 1 1 1 0 0 0 0 0 0 0 0 0 0 0 0 0 1 3
13 14 16 17 16 16 16 16 17 16 12 10 8 7 6 5 5 4 3 3 2 1 0 0 0 0 0 0 0 0 0 0 0 0 0 0 0 0 0 0 0 0 1
11 12 13 13 12 13 13 12 14 14 12 10 9 8 6 5 4 3 2 2 2 1 0 0 0 0 0 0 0 0 0 0 0 0 0 0 0 0 0 0 0 0 0
10 10 10 9 9 10 11 11 11 11 10 10 9 9 7 5 4 3 2 1 1 1 0 0 0 0 0 0 0 0 0 0 0 0 0 0 0 0 0 0 0 0 0
10 10 9 8 8 10 11 11 10 10 9 9 9 9 8 6 5 5 3 1 0 0 0 0 0 0 0 0 0 0 0 0 0 0 0 0 0 0 0 0 0 0 0
10 11 9 8 8 10 12 12 11 10 9 8 8 8 8 7 6 6 4 3 1 0 0 0 0 0 0 0 0 0 0 0 0 0 0 0 0 0 0 0 0 0 0